| time (UTC) | temp F | wind direction | speed knots | gust knots | rain 1hr in | rain 24hr in | rain mn in | humidity % | barometer mb |
| 20260510061006 | 48 | 125 | 0.0 | 0.0 | 0.00 | 0.00 | 0.00 | 92 | 1011.1 |
| 20260510060508 | 48 | 125 | 0.0 | 0.0 | 0.00 | 0.00 | 0.00 | 92 | 1011.0 |
| 20260510060018 | 48 | 125 | 0.0 | 0.0 | 0.00 | 0.00 | 0.00 | 92 | 1011.0 |
| 20260510055510 | 48 | 125 | 0.0 | 0.0 | 0.00 | 0.00 | 0.00 | 92 | 1011.0 |
| 20260510055007 | 48 | 125 | 0.0 | 0.0 | 0.00 | 0.00 | 0.00 | 92 | 1011.1 |
| 20260510054522 | 48 | 125 | 0.0 | 0.0 | 0.00 | 0.00 | 0.00 | 92 | 1011.1 |
| 20260510054005 | 48 | 125 | 0.0 | 0.0 | 0.00 | 0.00 | 0.00 | 92 | 1011.1 |
| 20260510053506 | 49 | 125 | 0.0 | 0.0 | 0.00 | 0.00 | 0.00 | 91 | 1011.2 |
| 20260510053004 | 49 | 125 | 0.0 | 0.0 | 0.00 | 0.00 | 0.00 | 91 | 1011.2 |
| 20260510052502 | 49 | 125 | 0.0 | 0.0 | 0.00 | 0.00 | 0.00 | 91 | 1011.2 |
| 20260510052004 | 49 | 125 | 0.0 | 0.0 | 0.00 | 0.00 | 0.00 | 91 | 1011.1 |
| 20260510051512 | 49 | 125 | 0.0 | 0.0 | 0.00 | 0.00 | 0.00 | 91 | 1011.1 |
| 20260510051005 | 49 | 125 | 0.0 | 0.0 | 0.00 | 0.00 | 0.00 | 91 | 1011.1 |
| 20260510050509 | 49 | 125 | 0.0 | 0.0 | 0.00 | 0.00 | 0.00 | 91 | 1011.2 |
| 20260510050011 | 50 | 125 | 0.0 | 0.0 | 0.00 | 0.00 | 0.00 | 91 | 1011.3 |
| 20260510045506 | 50 | 125 | 0.0 | 0.0 | 0.00 | 0.00 | 0.00 | 91 | 1011.3 |
| 20260510045011 | 50 | 125 | 0.0 | 0.0 | 0.00 | 0.00 | 0.00 | 91 | 1011.3 |
| 20260510044509 | 50 | 125 | 0.0 | 0.0 | 0.00 | 0.00 | 0.00 | 91 | 1011.3 |
| 20260510044006 | 50 | 125 | 0.0 | 0.0 | 0.00 | 0.00 | 0.00 | 91 | 1011.4 |
| 20260510043509 | 50 | 125 | 0.0 | 0.0 | 0.00 | 0.00 | 0.00 | 91 | 1011.4 |
| 20260510043010 | 50 | 125 | 0.0 | 0.0 | 0.00 | 0.00 | 0.00 | 90 | 1011.4 |
| 20260510042503 | 50 | 125 | 0.0 | 0.0 | 0.00 | 0.00 | 0.00 | 90 | 1011.4 |
| 20260510042005 | 50 | 125 | 0.0 | 0.0 | 0.00 | 0.00 | 0.00 | 90 | 1011.4 |
| 20260510041512 | 50 | 125 | 0.0 | 0.0 | 0.00 | 0.00 | 0.00 | 89 | 1011.4 |
| 20260510041008 | 50 | 125 | 0.0 | 0.0 | 0.00 | 0.00 | 0.00 | 90 | 1011.4 |
| 20260510040506 | 51 | 125 | 0.0 | 0.0 | 0.00 | 0.00 | 0.00 | 89 | 1011.5 |
| 20260510040020 | 51 | 125 | 0.0 | 0.0 | 0.00 | 0.00 | 0.00 | 89 | 1011.4 |
| 20260510035505 | 51 | 125 | 0.0 | 0.0 | 0.00 | 0.00 | 0.00 | 90 | 1011.5 |
| 20260510035003 | 51 | 125 | 0.0 | 0.0 | 0.00 | 0.00 | 0.00 | 89 | 1011.5 |
| 20260510034518 | 51 | 125 | 0.0 | 0.0 | 0.00 | 0.00 | 0.00 | 89 | 1011.5 |
| 20260510034009 | 51 | 125 | 0.0 | 0.0 | 0.00 | 0.00 | 0.00 | 89 | 1011.5 |
| 20260510033506 | 51 | 125 | 0.0 | 0.0 | 0.00 | 0.00 | 0.00 | 89 | 1011.5 |
| 20260510033011 | 51 | 125 | 0.0 | 0.0 | 0.00 | 0.00 | 0.00 | 89 | 1011.5 |
| 20260510032508 | 52 | 125 | 0.0 | 0.0 | 0.00 | 0.00 | 0.00 | 89 | 1011.5 |
| 20260510032008 | 52 | 125 | 0.0 | 0.0 | 0.00 | 0.00 | 0.00 | 89 | 1011.4 |
| 20260510031508 | 52 | 125 | 0.0 | 0.0 | 0.00 | 0.00 | 0.00 | 88 | 1011.4 |
| 20260510031008 | 52 | 125 | 0.0 | 0.0 | 0.00 | 0.00 | 0.00 | 89 | 1011.3 |
| 20260510030507 | 52 | 125 | 0.0 | 0.0 | 0.00 | 0.00 | 0.00 | 88 | 1011.4 |
| 20260510030033 | 52 | 125 | 0.0 | 0.0 | 0.00 | 0.00 | 0.00 | 89 | 1011.4 |
| 20260510025506 | 52 | 125 | 0.0 | 0.0 | 0.00 | 0.00 | 0.00 | 88 | 1011.2 |
| 20260510025009 | 52 | 125 | 0.0 | 0.0 | 0.00 | 0.00 | 0.00 | 88 | 1011.2 |
| 20260510024525 | 53 | 125 | 0.0 | 0.0 | 0.00 | 0.00 | 0.00 | 87 | 1011.3 |
| 20260510024009 | 53 | 125 | 0.0 | 0.0 | 0.00 | 0.00 | 0.00 | 87 | 1011.2 |
| 20260510023503 | 53 | 125 | 0.0 | 0.0 | 0.00 | 0.00 | 0.00 | 87 | 1011.2 |
| 20260510023013 | 53 | 125 | 0.0 | 0.0 | 0.00 | 0.00 | 0.00 | 87 | 1011.2 |
| 20260510022507 | 53 | 125 | 0.0 | 0.0 | 0.00 | 0.00 | 0.00 | 87 | 1011.2 |
| 20260510022004 | 53 | 125 | 0.0 | 0.0 | 0.00 | 0.00 | 0.00 | 87 | 1011.1 |
| 20260510021522 | 53 | 125 | 0.0 | 1.7 | 0.00 | 0.00 | 0.00 | 87 | 1011.0 |
| 20260510021011 | 54 | 125 | 0.0 | 1.7 | 0.00 | 0.00 | 0.00 | 86 | 1010.8 |
| 20260510020510 | 54 | 125 | 0.0 | 0.0 | 0.00 | 0.00 | 0.00 | 85 | 1011.0 |
| 20260510020014 | 54 | 125 | 0.0 | 0.0 | 0.00 | 0.00 | 0.00 | 85 | 1010.9 |
| 20260510015509 | 54 | 125 | 0.0 | 0.0 | 0.00 | 0.00 | 0.00 | 85 | 1010.9 |
| 20260510015009 | 54 | 125 | 0.0 | 0.0 | 0.00 | 0.00 | 0.00 | 84 | 1010.9 |
| 20260510014510 | 55 | 125 | 0.0 | 0.0 | 0.00 | 0.00 | 0.00 | 83 | 1010.9 |
| 20260510014006 | 55 | 125 | 0.0 | 0.0 | 0.00 | 0.00 | 0.00 | 83 | 1010.9 |
| 20260510013503 | 55 | 125 | 0.0 | 0.0 | 0.00 | 0.00 | 0.00 | 82 | 1010.8 |
| 20260510013015 | 55 | 125 | 0.0 | 0.0 | 0.00 | 0.00 | 0.00 | 82 | 1010.8 |
| 20260510012505 | 56 | 125 | 0.0 | 0.0 | 0.00 | 0.00 | 0.00 | 82 | 1010.7 |
| 20260510012009 | 56 | 125 | 0.0 | 0.0 | 0.00 | 0.00 | 0.00 | 80 | 1010.6 |
| 20260510011521 | 56 | 125 | 0.0 | 0.0 | 0.00 | 0.00 | 0.00 | 80 | 1010.5 |
| 20260510011012 | 57 | 125 | 0.0 | 0.0 | 0.00 | 0.00 | 0.00 | 80 | 1010.4 |
| 20260510010506 | 57 | 125 | 0.0 | 0.0 | 0.00 | 0.00 | 0.00 | 79 | 1010.2 |
| 20260510010023 | 57 | 125 | 0.0 | 0.0 | 0.00 | 0.00 | 0.00 | 79 | 1010.1 |
| 20260510005504 | 58 | 125 | 0.0 | 0.0 | 0.00 | 0.00 | 0.00 | 78 | 1010.1 |
| 20260510005005 | 58 | 125 | 0.0 | 0.0 | 0.00 | 0.00 | 0.00 | 77 | 1010.1 |
| 20260510004503 | 58 | 125 | 0.0 | 0.9 | 0.00 | 0.00 | 0.00 | 76 | 1010.0 |
| 20260510004003 | 59 | 125 | 0.0 | 0.9 | 0.00 | 0.00 | 0.00 | 76 | 1009.8 |
| 20260510003504 | 59 | 125 | 0.0 | 0.9 | 0.00 | 0.00 | 0.00 | 75 | 1009.9 |
| 20260510003023 | 59 | 146 | 0.0 | 1.7 | 0.00 | 0.00 | 0.00 | 74 | 1009.9 |
| 20260510002503 | 60 | 114 | 0.0 | 1.7 | 0.00 | 0.00 | 0.00 | 74 | 1009.8 |
| 20260510002002 | 60 | 149 | 0.0 | 1.7 | 0.00 | 0.00 | 0.00 | 73 | 1009.8 |
| 20260510001504 | 61 | 149 | 0.0 | 1.7 | 0.00 | 0.00 | 0.00 | 72 | 1009.8 |
| 20260510001004 | 61 | 149 | 0.0 | 1.7 | 0.00 | 0.00 | 0.00 | 72 | 1009.7 |
| 20260510000503 | 61 | 149 | 0.0 | 1.7 | 0.00 | 0.00 | 0.00 | 71 | 1009.8 |
| 20260510000006 | 62 | 105 | 0.0 | 0.0 | 0.00 | 0.00 | 0.00 | 71 | 1009.8 |
| 20260509235505 | 62 | 105 | 0.0 | 0.0 | 0.00 | 0.00 | 0.00 | 71 | 1009.9 |
| 20260509235003 | 62 | 105 | 0.0 | 0.0 | 0.00 | 0.00 | 0.00 | 69 | 1009.8 |
| 20260509234512 | 62 | 105 | 0.0 | 0.0 | 0.00 | 0.00 | 0.00 | 69 | 1009.8 |
| 20260509234005 | 63 | 105 | 0.0 | 1.7 | 0.00 | 0.00 | 0.00 | 69 | 1009.8 |
| 20260509233504 | 63 | 101 | 0.0 | 2.6 | 0.00 | 0.00 | 0.00 | 69 | 1009.7 |
| 20260509233003 | 63 | 80 | 0.9 | 2.6 | 0.00 | 0.00 | 0.00 | 69 | 1009.6 |
| 20260509232507 | 63 | 86 | 0.9 | 2.6 | 0.00 | 0.00 | 0.00 | 68 | 1009.7 |
| 20260509232003 | 64 | 110 | 0.0 | 2.6 | 0.00 | 0.00 | 0.00 | 69 | 1009.6 |
| 20260509231505 | 64 | 91 | 0.0 | 2.6 | 0.00 | 0.00 | 0.00 | 68 | 1009.7 |
| 20260509231005 | 64 | 115 | 0.0 | 2.6 | 0.00 | 0.00 | 0.00 | 67 | 1009.7 |
| 20260509230502 | 64 | 37 | 1.7 | 2.6 | 0.00 | 0.00 | 0.00 | 66 | 1009.7 |
| 20260509230011 | 64 | 113 | 0.0 | 2.6 | 0.00 | 0.00 | 0.00 | 66 | 1009.7 |
| 20260509225504 | 64 | 112 | 0.9 | 3.5 | 0.00 | 0.00 | 0.00 | 66 | 1009.7 |
| 20260509225005 | 65 | 65 | 1.7 | 3.5 | 0.00 | 0.00 | 0.00 | 65 | 1009.6 |
| 20260509224515 | 65 | 30 | 1.7 | 7.0 | 0.00 | 0.00 | 0.00 | 66 | 1009.6 |
| 20260509224003 | 65 | 60 | 2.6 | 7.0 | 0.00 | 0.00 | 0.00 | 64 | 1009.7 |
| 20260509223504 | 65 | 88 | 1.7 | 5.2 | 0.00 | 0.00 | 0.00 | 64 | 1009.8 |
| 20260509223004 | 65 | 38 | 1.7 | 5.2 | 0.00 | 0.00 | 0.00 | 64 | 1009.7 |
| 20260509222504 | 66 | 47 | 2.6 | 5.2 | 0.00 | 0.00 | 0.00 | 64 | 1009.6 |
| 20260509222004 | 66 | 55 | 0.9 | 5.2 | 0.00 | 0.00 | 0.00 | 66 | 1009.6 |
| 20260509221511 | 65 | 155 | 0.9 | 5.2 | 0.00 | 0.00 | 0.00 | 65 | 1009.6 |
| 20260509221003 | 65 | 46 | 0.9 | 3.5 | 0.00 | 0.00 | 0.00 | 65 | 1009.5 |
| 20260509220505 | 65 | 117 | 0.9 | 6.1 | 0.00 | 0.00 | 0.00 | 67 | 1009.6 |
| 20260509220004 | 65 | 17 | 1.7 | 6.1 | 0.00 | 0.00 | 0.00 | 64 | 1009.7 |
| 20260509215507 | 64 | 112 | 1.7 | 6.1 | 0.00 | 0.00 | 0.00 | 65 | 1009.7 |
| 20260509215007 | 64 | 32 | 3.5 | 5.2 | 0.00 | 0.00 | 0.00 | 65 | 1009.7 |
| 20260509214504 | 64 | 44 | 1.7 | 4.3 | 0.00 | 0.00 | 0.00 | 67 | 1009.8 |
| 20260509214004 | 63 | 57 | 1.7 | 3.5 | 0.00 | 0.00 | 0.00 | 68 | 1009.8 |
| 20260509213507 | 63 | 46 | 0.9 | 4.3 | 0.00 | 0.00 | 0.00 | 69 | 1009.8 |
| 20260509213005 | 63 | 57 | 0.9 | 4.3 | 0.00 | 0.00 | 0.00 | 68 | 1009.8 |
| 20260509212504 | 63 | 9 | 1.7 | 3.5 | 0.00 | 0.00 | 0.00 | 67 | 1009.9 |
| 20260509212008 | 63 | 37 | 0.9 | 3.5 | 0.00 | 0.00 | 0.00 | 67 | 1009.9 |
| 20260509211508 | 63 | 121 | 1.7 | 3.5 | 0.00 | 0.00 | 0.00 | 68 | 1009.9 |
| 20260509211003 | 62 | 111 | 0.9 | 6.1 | 0.00 | 0.00 | 0.00 | 69 | 1009.9 |
| 20260509210507 | 62 | 99 | 1.7 | 6.1 | 0.00 | 0.00 | 0.00 | 69 | 1010.0 |
| 20260509210016 | 62 | 22 | 2.6 | 5.2 | 0.00 | 0.00 | 0.00 | 69 | 1009.8 |
| 20260509205508 | 62 | 39 | 2.6 | 7.8 | 0.00 | 0.00 | 0.00 | 68 | 1009.8 |
| 20260509205005 | 62 | 57 | 1.7 | 7.8 | 0.00 | 0.00 | 0.00 | 69 | 1009.9 |
| 20260509204514 | 62 | 42 | 1.7 | 6.1 | 0.00 | 0.00 | 0.00 | 67 | 1009.9 |
| 20260509204008 | 62 | 71 | 2.6 | 6.1 | 0.00 | 0.00 | 0.00 | 66 | 1009.8 |
| 20260509203503 | 63 | 30 | 1.7 | 5.2 | 0.00 | 0.00 | 0.00 | 67 | 1009.9 |
| 20260509203004 | 62 | 55 | 3.5 | 5.2 | 0.00 | 0.00 | 0.00 | 65 | 1009.9 |
| 20260509202505 | 62 | 98 | 1.7 | 5.2 | 0.00 | 0.00 | 0.00 | 66 | 1009.9 |
| 20260509202008 | 62 | 76 | 2.6 | 5.2 | 0.00 | 0.00 | 0.00 | 66 | 1010.0 |
| 20260509201508 | 62 | 59 | 2.6 | 5.2 | 0.00 | 0.00 | 0.00 | 67 | 1010.0 |
| 20260509201005 | 62 | 82 | 3.5 | 5.2 | 0.00 | 0.00 | 0.00 | 67 | 1010.0 |
| 20260509200506 | 62 | 57 | 1.7 | 4.3 | 0.00 | 0.00 | 0.00 | 67 | 1009.9 |
| 20260509200020 | 63 | 53 | 2.6 | 4.3 | 0.00 | 0.00 | 0.00 | 65 | 1010.1 |
| 20260509195504 | 63 | 159 | 0.0 | 1.7 | 0.00 | 0.00 | 0.00 | 66 | 1010.1 |
| 20260509195005 | 63 | 85 | 0.0 | 1.7 | 0.00 | 0.00 | 0.00 | 66 | 1010.1 |
| 20260509194525 | 63 | 48 | 0.9 | 2.6 | 0.00 | 0.00 | 0.00 | 65 | 1010.1 |
| 20260509194002 | 63 | 88 | 0.9 | 2.6 | 0.00 | 0.00 | 0.00 | 66 | 1010.1 |
| 20260509193506 | 63 | 72 | 0.9 | 2.6 | 0.00 | 0.00 | 0.00 | 65 | 1010.1 |
| 20260509193008 | 63 | 110 | 1.7 | 2.6 | 0.00 | 0.00 | 0.00 | 64 | 1010.3 |
| 20260509192505 | 63 | 101 | 0.9 | 1.7 | 0.00 | 0.00 | 0.00 | 66 | 1010.3 |
| 20260509192009 | 63 | 65 | 0.0 | 5.2 | 0.00 | 0.00 | 0.00 | 64 | 1010.4 |
| 20260509191517 | 64 | 76 | 1.7 | 5.2 | 0.00 | 0.00 | 0.00 | 63 | 1010.3 |
| 20260509191011 | 64 | 100 | 1.7 | 3.5 | 0.00 | 0.00 | 0.00 | 63 | 1010.4 |
| 20260509190503 | 64 | 132 | 0.0 | 3.5 | 0.00 | 0.00 | 0.00 | 62 | 1010.6 |
| 20260509190011 | 64 | 107 | 0.9 | 4.3 | 0.00 | 0.00 | 0.00 | 63 | 1010.5 |
| 20260509185507 | 64 | 154 | 0.0 | 7.0 | 0.00 | 0.00 | 0.00 | 63 | 1010.6 |
| 20260509185016 | 64 | 61 | 1.7 | 7.0 | 0.00 | 0.00 | 0.00 | 64 | 1010.5 |
| 20260509184512 | 63 | 138 | 0.9 | 6.1 | 0.00 | 0.00 | 0.00 | 65 | 1010.6 |
| 20260509184002 | 63 | 151 | 1.7 | 6.1 | 0.00 | 0.00 | 0.00 | 64 | 1010.6 |
| 20260509183507 | 63 | 40 | 1.7 | 6.1 | 0.00 | 0.00 | 0.00 | 66 | 1010.7 |
| 20260509183014 | 63 | 105 | 1.7 | 6.1 | 0.00 | 0.00 | 0.00 | 67 | 1010.8 |
| 20260509182505 | 62 | 128 | 0.9 | 7.0 | 0.00 | 0.00 | 0.00 | 67 | 1011.0 |
| 20260509182013 | 62 | 78 | 0.9 | 7.0 | 0.00 | 0.00 | 0.00 | 67 | 1011.0 |
| 20260509181517 | 62 | 86 | 1.7 | 4.3 | 0.00 | 0.00 | 0.00 | 65 | 1011.1 |
| 20260509181008 | 61 | 86 | 1.7 | 3.5 | 0.00 | 0.00 | 0.00 | 67 | 1011.2 |
| 20260509180507 | 61 | 57 | 1.7 | 2.6 | 0.00 | 0.00 | 0.00 | 68 | 1011.2 |
| 20260509180023 | 61 | 17 | 0.0 | 1.7 | 0.00 | 0.00 | 0.00 | 67 | 1011.4 |
| 20260509175507 | 60 | 18 | 0.0 | 3.5 | 0.00 | 0.00 | 0.00 | 67 | 1011.6 |
| 20260509175004 | 60 | 23 | 0.9 | 3.5 | 0.00 | 0.00 | 0.00 | 67 | 1011.7 |
| 20260509174518 | 60 | 29 | 0.9 | 3.5 | 0.00 | 0.00 | 0.00 | 65 | 1011.8 |
| 20260509174004 | 60 | 319 | 0.9 | 3.5 | 0.00 | 0.00 | 0.00 | 64 | 1011.9 |
| 20260509173506 | 60 | 352 | 0.9 | 2.6 | 0.00 | 0.00 | 0.00 | 64 | 1011.7 |
| 20260509173014 | 61 | 331 | 1.7 | 2.6 | 0.00 | 0.00 | 0.00 | 63 | 1011.6 |
| 20260509172510 | 61 | 57 | 0.0 | 2.6 | 0.00 | 0.00 | 0.00 | 65 | 1011.7 |
| 20260509172007 | 60 | 15 | 0.9 | 3.5 | 0.00 | 0.00 | 0.00 | 65 | 1011.7 |
| 20260509171512 | 60 | 360 | 1.7 | 3.5 | 0.00 | 0.00 | 0.00 | 65 | 1011.5 |
| 20260509171006 | 60 | 41 | 1.7 | 3.5 | 0.00 | 0.00 | 0.00 | 66 | 1011.6 |
| 20260509170510 | 60 | 352 | 2.6 | 3.5 | 0.00 | 0.00 | 0.00 | 66 | 1011.8 |
| 20260509170026 | 60 | 48 | 0.9 | 4.3 | 0.00 | 0.00 | 0.00 | 67 | 1011.8 |
| 20260509165506 | 60 | 67 | 0.9 | 4.3 | 0.00 | 0.00 | 0.00 | 64 | 1011.9 |
| 20260509165012 | 60 | 42 | 2.6 | 4.3 | 0.00 | 0.00 | 0.00 | 65 | 1011.9 |
| 20260509164509 | 60 | 42 | 1.7 | 2.6 | 0.00 | 0.00 | 0.00 | 65 | 1011.9 |
| 20260509164310 | 60 | 327 | 0.9 | 3.5 | 0.00 | 0.00 | 0.00 | 63 | 1011.9 |
| 20260509164306 | 60 | 325 | 1.7 | 3.5 | 0.00 | 0.00 | 0.00 | 64 | 1011.8 |
| 20260509164303 | 60 | 74 | 2.6 | 3.5 | 0.00 | 0.00 | 0.00 | 63 | 1012.0 |
| 20260509164255 | 60 | 352 | 0.9 | 3.5 | 0.00 | 0.00 | 0.00 | 62 | 1012.1 |
| 20260509164252 | 61 | 360 | 1.7 | 4.3 | 0.00 | 0.00 | 0.00 | 64 | 1011.9 |
| 20260509164249 | 61 | 326 | 1.7 | 4.3 | 0.00 | 0.00 | 0.00 | 64 | 1012.0 |
| 20260509164243 | 60 | 336 | 0.9 | 0.0 | 0.00 | 0.00 | 0.00 | 61 | 1011.8 |
| 20260509164240 | 57 | 196 | 3.5 | 9.6 | 0.00 | 0.07 | 0.04 | 54 | 1009.7 |
| 20260509164235 | 57 | 123 | 0.0 | 0.9 | 0.00 | 0.07 | 0.04 | 57 | 1009.7 |
| 20260509164227 | 58 | 123 | 0.0 | 1.7 | 0.00 | 0.07 | 0.04 | 55 | 1009.6 |
| 20260509164225 | 58 | 123 | 0.9 | 1.7 | 0.00 | 0.07 | 0.04 | 56 | 1009.5 |
| 20260509164220 | 59 | 126 | 0.0 | 1.7 | 0.00 | 0.07 | 0.04 | 54 | 1009.4 |
| 20260509164215 | 60 | 126 | 0.9 | 1.7 | 0.00 | 0.07 | 0.04 | 52 | 1009.4 |
| 20260509164210 | 60 | 115 | 0.0 | 0.0 | 0.00 | 0.07 | 0.04 | 52 | 1009.2 |
| 20260509164207 | 61 | 115 | 0.0 | 0.0 | 0.00 | 0.07 | 0.04 | 49 | 1009.2 |
| 20260509164158 | 61 | 115 | 0.0 | 0.0 | 0.00 | 0.07 | 0.04 | 47 | 1009.2 |
| 20260509164153 | 62 | 115 | 0.0 | 0.0 | 0.00 | 0.07 | 0.04 | 46 | 1009.0 |
| 20260509164149 | 63 | 97 | 0.0 | 1.7 | 0.00 | 0.07 | 0.04 | 49 | 1008.9 |
| 20260509164142 | 63 | 75 | 0.0 | 1.7 | 0.00 | 0.07 | 0.04 | 47 | 1008.8 |
| 20260509164138 | 64 | 75 | 0.0 | 0.9 | 0.00 | 0.07 | 0.04 | 42 | 1008.8 |
| 20260509164134 | 64 | 75 | 0.0 | 0.9 | 0.00 | 0.07 | 0.04 | 39 | 1008.7 |
| 20260509164127 | 64 | 75 | 0.0 | 0.9 | 0.00 | 0.07 | 0.04 | 39 | 1008.8 |
| 20260509164123 | 65 | 75 | 0.9 | 1.7 | 0.00 | 0.07 | 0.04 | 36 | 1008.8 |
| 20260509164116 | 65 | 350 | 0.9 | 1.7 | 0.00 | 0.07 | 0.04 | 38 | 1008.7 |
| 20260509164113 | 65 | 312 | 0.9 | 1.7 | 0.00 | 0.07 | 0.04 | 35 | 1008.6 |
| 20260509164108 | 65 | 98 | 0.0 | 4.3 | 0.00 | 0.07 | 0.04 | 39 | 1008.6 |
| 20260509164106 | 66 | 223 | 1.7 | 4.3 | 0.00 | 0.07 | 0.04 | 40 | 1008.6 |
| 20260509164100 | 66 | 180 | 1.7 | 4.3 | 0.00 | 0.07 | 0.04 | 38 | 1008.6 |
| 20260509164056 | 65 | 171 | 1.7 | 3.5 | 0.00 | 0.07 | 0.04 | 39 | 1008.6 |
| 20260509164053 | 65 | 188 | 0.0 | 3.5 | 0.00 | 0.07 | 0.04 | 38 | 1008.5 |
| 20260509164050 | 65 | 182 | 1.7 | 3.5 | 0.00 | 0.07 | 0.04 | 38 | 1008.6 |
| 20260509164047 | 65 | 48 | 0.9 | 5.2 | 0.00 | 0.07 | 0.04 | 36 | 1008.6 |
| 20260509164042 | 65 | 299 | 2.6 | 5.2 | 0.00 | 0.07 | 0.04 | 42 | 1008.7 |
| 20260509164038 | 65 | 186 | 2.6 | 4.3 | 0.00 | 0.07 | 0.04 | 37 | 1008.8 |
| 20260509164029 | 64 | 54 | 0.9 | 2.6 | 0.00 | 0.07 | 0.04 | 44 | 1008.8 |
| 20260509164027 | 63 | 240 | 0.9 | 2.6 | 0.00 | 0.07 | 0.04 | 40 | 1008.9 |
| 20260509164023 | 62 | 207 | 1.7 | 4.3 | 0.00 | 0.07 | 0.04 | 39 | 1008.9 |
| 20260509164020 | 62 | 285 | 1.7 | 6.1 | 0.00 | 0.07 | 0.04 | 39 | 1008.9 |
| 20260509164016 | 63 | 318 | 2.6 | 6.1 | 0.00 | 0.07 | 0.04 | 37 | 1009.0 |
| 20260509164013 | 63 | 317 | 1.7 | 6.1 | 0.00 | 0.07 | 0.04 | 39 | 1009.0 |
| 20260509164009 | 64 | 217 | 2.6 | 7.0 | 0.00 | 0.07 | 0.04 | 40 | 1009.1 |
| 20260509164006 | 64 | 327 | 1.7 | 7.0 | 0.00 | 0.07 | 0.04 | 38 | 1009.0 |
| 20260509163958 | 64 | 323 | 0.9 | 5.2 | 0.00 | 0.07 | 0.04 | 40 | 1008.9 |
| 20260509163953 | 64 | 341 | 2.6 | 7.8 | 0.00 | 0.07 | 0.04 | 37 | 1008.8 |
| 20260509163949 | 64 | 352 | 2.6 | 6.1 | 0.00 | 0.07 | 0.04 | 41 | 1008.8 |
| 20260509163946 | 64 | 321 | 2.6 | 6.1 | 0.00 | 0.07 | 0.04 | 43 | 1008.9 |
| 20260509163942 | 64 | 222 | 3.5 | 7.0 | 0.00 | 0.07 | 0.04 | 38 | 1008.9 |
| 20260509163934 | 63 | 351 | 3.5 | 7.8 | 0.00 | 0.07 | 0.04 | 39 | 1009.0 |
| 20260509163931 | 63 | 22 | 0.0 | 7.8 | 0.00 | 0.07 | 0.04 | 42 | 1009.2 |
| 20260509163926 | 63 | 350 | 5.2 | 7.8 | 0.00 | 0.07 | 0.04 | 38 | 1009.4 |
| 20260509163923 | 63 | 296 | 4.3 | 7.8 | 0.00 | 0.07 | 0.04 | 39 | 1009.5 |
| 20260509163919 | 62 | 41 | 2.6 | 8.7 | 0.00 | 0.07 | 0.04 | 40 | 1009.4 |
| 20260509163913 | 63 | 12 | 3.5 | 7.8 | 0.00 | 0.07 | 0.04 | 47 | 1009.7 |
| 20260509163907 | 62 | 282 | 2.6 | 12.2 | 0.00 | 0.07 | 0.04 | 43 | 1009.7 |
| 20260509163905 | 62 | 360 | 2.6 | 12.2 | 0.00 | 0.07 | 0.04 | 41 | 1009.7 |
| 20260509163858 | 61 | 44 | 3.5 | 8.7 | 0.00 | 0.07 | 0.04 | 46 | 1009.7 |
| 20260509163854 | 61 | 306 | 0.9 | 5.2 | 0.00 | 0.07 | 0.04 | 43 | 1009.9 |
| 20260509163849 | 61 | 340 | 2.6 | 5.2 | 0.00 | 0.07 | 0.04 | 40 | 1010.0 |
| 20260509163844 | 61 | 285 | 3.5 | 7.8 | 0.00 | 0.07 | 0.04 | 43 | 1010.1 |
| 20260509163837 | 60 | 60 | 3.5 | 9.6 | 0.00 | 0.07 | 0.04 | 43 | 1010.1 |
| 20260509163830 | 60 | 47 | 6.1 | 9.6 | 0.00 | 0.07 | 0.04 | 43 | 1010.2 |
| 20260509163827 | 60 | 335 | 2.6 | 6.1 | 0.00 | 0.07 | 0.04 | 44 | 1010.2 |
| 20260509163821 | 59 | 291 | 2.6 | 9.6 | 0.00 | 0.07 | 0.04 | 45 | 1010.5 |
| 20260509163817 | 59 | 316 | 5.2 | 12.2 | 0.00 | 0.07 | 0.04 | 43 | 1010.6 |
| 20260509163810 | 59 | 10 | 3.5 | 12.2 | 0.00 | 0.07 | 0.04 | 45 | 1010.8 |
| 20260509163802 | 59 | 311 | 5.2 | 12.2 | 0.00 | 0.07 | 0.04 | 45 | 1011.0 |
| 20260509163759 | 59 | 313 | 4.3 | 7.0 | 0.00 | 0.07 | 0.04 | 47 | 1010.8 |
| 20260509163755 | 59 | 298 | 2.6 | 8.7 | 0.00 | 0.07 | 0.04 | 48 | 1011.0 |
| 20260509163753 | 58 | 76 | 4.3 | 8.7 | 0.00 | 0.07 | 0.04 | 47 | 1011.0 |
| 20260509163747 | 58 | 13 | 1.7 | 13.0 | 0.00 | 0.07 | 0.04 | 46 | 1011.0 |
| 20260509163744 | 58 | 272 | 1.7 | 9.6 | 0.00 | 0.07 | 0.04 | 43 | 1011.1 |
| 20260509163736 | 58 | 28 | 5.2 | 10.4 | 0.00 | 0.07 | 0.04 | 45 | 1011.2 |
| 20260509163733 | 58 | 294 | 6.1 | 10.4 | 0.00 | 0.07 | 0.04 | 45 | 1011.3 |
| 20260509163729 | 58 | 351 | 5.2 | 10.4 | 0.00 | 0.07 | 0.04 | 46 | 1011.5 |
| 20260509163726 | 58 | 63 | 5.2 | 9.6 | 0.00 | 0.07 | 0.04 | 45 | 1011.4 |
| 20260509163722 | 57 | 69 | 4.3 | 10.4 | 0.00 | 0.07 | 0.04 | 44 | 1011.6 |
| 20260509163718 | 57 | 19 | 3.5 | 11.3 | 0.00 | 0.07 | 0.04 | 46 | 1011.6 |
| 20260509163714 | 57 | 360 | 6.1 | 11.3 | 0.00 | 0.07 | 0.04 | 44 | 1011.8 |
| 20260509163710 | 57 | 41 | 4.3 | 11.3 | 0.00 | 0.07 | 0.04 | 45 | 1011.8 |
| 20260509163707 | 57 | 64 | 6.1 | 11.3 | 0.00 | 0.07 | 0.04 | 44 | 1011.9 |
| 20260509163701 | 57 | 360 | 1.7 | 12.2 | 0.00 | 0.07 | 0.04 | 51 | 1011.9 |
| 20260509163656 | 57 | 41 | 4.3 | 12.2 | 0.00 | 0.07 | 0.04 | 46 | 1012.0 |
| 20260509163653 | 56 | 325 | 5.2 | 10.4 | 0.00 | 0.07 | 0.04 | 45 | 1011.9 |
| 20260509163648 | 56 | 320 | 4.3 | 10.4 | 0.00 | 0.07 | 0.04 | 48 | 1012.0 |
| 20260509163644 | 57 | 344 | 6.1 | 11.3 | 0.00 | 0.07 | 0.04 | 44 | 1012.0 |
| 20260509163641 | 57 | 18 | 5.2 | 11.3 | 0.00 | 0.07 | 0.04 | 44 | 1012.0 |
| 20260509163637 | 57 | 51 | 3.5 | 9.6 | 0.00 | 0.07 | 0.04 | 50 | 1012.0 |
| 20260509163632 | 56 | 9 | 5.2 | 12.2 | 0.00 | 0.07 | 0.04 | 48 | 1012.2 |
| 20260509163627 | 55 | 352 | 2.6 | 12.2 | 0.00 | 0.07 | 0.04 | 45 | 1012.3 |
| 20260509163624 | 55 | 304 | 5.2 | 12.2 | 0.00 | 0.08 | 0.04 | 45 | 1012.4 |
| 20260509163621 | 55 | 322 | 6.1 | 13.0 | 0.00 | 0.08 | 0.04 | 45 | 1012.5 |
| 20260509163617 | 55 | 333 | 7.8 | 13.0 | 0.00 | 0.08 | 0.04 | 44 | 1012.5 |
| 20260509163615 | 55 | 304 | 7.8 | 11.3 | 0.00 | 0.08 | 0.04 | 47 | 1012.5 |
| 20260509163609 | 55 | 28 | 5.2 | 11.3 | 0.00 | 0.09 | 0.04 | 46 | 1012.6 |
| 20260509163604 | 54 | 360 | 3.5 | 11.3 | 0.00 | 0.10 | 0.04 | 47 | 1012.6 |
| 20260509163558 | 54 | 329 | 6.1 | 11.3 | 0.00 | 0.11 | 0.04 | 50 | 1012.6 |
| 20260509163555 | 53 | 311 | 5.2 | 9.6 | 0.00 | 0.11 | 0.04 | 49 | 1012.5 |
| 20260509163550 | 53 | 32 | 3.5 | 8.7 | 0.00 | 0.12 | 0.04 | 49 | 1012.8 |
| 20260509163545 | 53 | 333 | 4.3 | 8.7 | 0.00 | 0.12 | 0.04 | 48 | 1012.9 |
| 20260509163543 | 53 | 332 | 5.2 | 8.7 | 0.00 | 0.12 | 0.04 | 48 | 1013.1 |
| 20260509163538 | 53 | 352 | 3.5 | 7.8 | 0.00 | 0.12 | 0.04 | 50 | 1013.1 |
| 20260509163534 | 52 | 28 | 3.5 | 9.6 | 0.00 | 0.13 | 0.04 | 50 | 1013.3 |
| 20260509163526 | 52 | 329 | 5.2 | 9.6 | 0.00 | 0.13 | 0.04 | 49 | 1013.2 |
| 20260509163523 | 52 | 320 | 3.5 | 7.0 | 0.00 | 0.13 | 0.04 | 50 | 1013.4 |
| 20260509163519 | 52 | 5 | 3.5 | 8.7 | 0.00 | 0.14 | 0.04 | 53 | 1013.4 |
| 20260509163516 | 51 | 319 | 4.3 | 8.7 | 0.00 | 0.15 | 0.04 | 52 | 1013.5 |
| 20260509163514 | 51 | 348 | 4.3 | 9.6 | 0.00 | 0.15 | 0.04 | 54 | 1013.2 |
| 20260509163510 | 51 | 16 | 4.3 | 7.0 | 0.00 | 0.16 | 0.04 | 54 | 1013.4 |
| 20260509163458 | 51 | 360 | 4.3 | 9.6 | 0.00 | 0.17 | 0.04 | 53 | 1013.4 |
| 20260509163455 | 51 | 327 | 4.3 | 10.4 | 0.00 | 0.18 | 0.04 | 54 | 1013.4 |
| 20260509163452 | 51 | 333 | 6.1 | 8.7 | 0.00 | 0.19 | 0.04 | 54 | 1013.4 |
| 20260509163449 | 50 | 339 | 3.5 | 8.7 | 0.00 | 0.19 | 0.04 | 56 | 1013.3 |
| 20260509163442 | 50 | 5 | 2.6 | 7.8 | 0.00 | 0.20 | 0.04 | 57 | 1013.3 |
| 20260509163438 | 50 | 360 | 3.5 | 9.6 | 0.00 | 0.20 | 0.04 | 58 | 1013.1 |
| 20260509163435 | 50 | 352 | 5.2 | 9.6 | 0.00 | 0.21 | 0.04 | 56 | 1013.1 |
| 20260509163431 | 50 | 350 | 5.2 | 8.7 | 0.00 | 0.21 | 0.04 | 58 | 1013.1 |
| 20260509163427 | 50 | 341 | 4.3 | 8.7 | 0.00 | 0.22 | 0.04 | 62 | 1013.1 |
| 20260509163422 | 50 | 360 | 4.3 | 8.7 | 0.00 | 0.22 | 0.04 | 62 | 1013.0 |
| 20260509163419 | 50 | 351 | 5.2 | 8.7 | 0.00 | 0.22 | 0.04 | 63 | 1013.0 |
| 20260509163416 | 49 | 308 | 4.3 | 11.3 | 0.00 | 0.22 | 0.04 | 68 | 1012.9 |
| 20260509163413 | 49 | 315 | 5.2 | 9.6 | 0.00 | 0.22 | 0.04 | 69 | 1013.0 |
| 20260509163405 | 49 | 338 | 3.5 | 7.8 | 0.00 | 0.22 | 0.04 | 72 | 1012.9 |
| 20260509163358 | 49 | 352 | 2.6 | 7.8 | 0.00 | 0.22 | 0.04 | 72 | 1013.0 |
| 20260509163354 | 49 | 331 | 2.6 | 7.0 | 0.00 | 0.22 | 0.04 | 74 | 1013.0 |
| 20260509163350 | 49 | 322 | 1.7 | 7.0 | 0.00 | 0.22 | 0.04 | 74 | 1013.1 |
| 20260509163341 | 49 | 344 | 1.7 | 4.3 | 0.00 | 0.22 | 0.04 | 74 | 1013.1 |
| 20260509163339 | 48 | 324 | 1.7 | 4.3 | 0.00 | 0.22 | 0.04 | 74 | 1012.9 |
| 20260509163331 | 48 | 331 | 1.7 | 4.3 | 0.00 | 0.22 | 0.04 | 75 | 1012.8 |
| 20260509163325 | 48 | 314 | 0.9 | 3.5 | 0.00 | 0.22 | 0.04 | 75 | 1012.5 |
| 20260509163320 | 48 | 345 | 1.7 | 2.6 | 0.00 | 0.22 | 0.04 | 77 | 1012.6 |
| 20260509163317 | 48 | 352 | 0.0 | 1.7 | 0.00 | 0.22 | 0.04 | 80 | 1012.5 |
| 20260509163311 | 48 | 327 | 0.0 | 1.7 | 0.00 | 0.22 | 0.04 | 75 | 1012.7 |
| 20260509163301 | 48 | 348 | 1.7 | 3.5 | 0.00 | 0.22 | 0.04 | 73 | 1012.1 |
| 20260509163256 | 48 | 360 | 1.7 | 2.6 | 0.00 | 0.22 | 0.04 | 74 | 1012.1 |
| 20260509163253 | 49 | 339 | 0.9 | 2.6 | 0.00 | 0.22 | 0.04 | 74 | 1012.0 |
| 20260509163247 | 49 | 350 | 0.0 | 3.5 | 0.00 | 0.22 | 0.04 | 73 | 1011.9 |
| 20260509163243 | 49 | 360 | 1.7 | 5.2 | 0.00 | 0.22 | 0.04 | 73 | 1012.0 |
| 20260509163239 | 49 | 336 | 2.6 | 5.2 | 0.00 | 0.22 | 0.04 | 72 | 1011.9 |
| 20260509163237 | 49 | 65 | 1.7 | 4.3 | 0.00 | 0.22 | 0.04 | 74 | 1011.9 |
| 20260509163229 | 49 | 352 | 0.9 | 3.5 | 0.00 | 0.22 | 0.04 | 76 | 1011.8 |
| 20260509163226 | 49 | 23 | 0.9 | 4.3 | 0.00 | 0.22 | 0.04 | 75 | 1011.8 |
| 20260509163223 | 49 | 22 | 0.9 | 4.3 | 0.00 | 0.22 | 0.04 | 75 | 1011.8 |
| 20260509163216 | 49 | 11 | 1.7 | 7.8 | 0.00 | 0.22 | 0.04 | 76 | 1011.9 |
| 20260509163211 | 49 | 5 | 2.6 | 7.0 | 0.00 | 0.22 | 0.04 | 77 | 1011.9 |
| 20260509163207 | 49 | 349 | 2.6 | 7.0 | 0.00 | 0.22 | 0.04 | 82 | 1011.6 |
| 20260509163159 | 50 | 12 | 3.5 | 7.0 | 0.00 | 0.22 | 0.04 | 89 | 1011.7 |
| 20260509163155 | 50 | 325 | 0.9 | 7.0 | 0.00 | 0.22 | 0.04 | 91 | 1011.7 |
| 20260509163152 | 50 | 18 | 0.0 | 4.3 | 0.00 | 0.22 | 0.04 | 91 | 1011.6 |
| 20260509163148 | 50 | 329 | 1.7 | 4.3 | 0.00 | 0.22 | 0.04 | 91 | 1011.5 |
| 20260509163144 | 50 | 20 | 1.7 | 4.3 | 0.00 | 0.22 | 0.04 | 92 | 1011.3 |
| 20260509163138 | 50 | 352 | 0.9 | 1.7 | 0.00 | 0.22 | 0.04 | 91 | 1011.3 |
| 20260509163133 | 50 | 38 | 0.0 | 1.7 | 0.00 | 0.22 | 0.04 | 92 | 1011.2 |
| 20260509163127 | 50 | 15 | 0.0 | 1.7 | 0.00 | 0.22 | 0.04 | 91 | 1011.2 |
| 20260509163123 | 50 | 15 | 0.0 | 1.7 | 0.00 | 0.22 | 0.04 | 91 | 1011.3 |
| 20260509163118 | 50 | 15 | 0.0 | 1.7 | 0.00 | 0.22 | 0.04 | 91 | 1011.3 |
| 20260509163114 | 50 | 15 | 0.0 | 1.7 | 0.01 | 0.22 | 0.04 | 91 | 1011.4 |
| 20260509163112 | 50 | 15 | 0.0 | 1.7 | 0.02 | 0.22 | 0.04 | 91 | 1011.2 |
| 20260509163107 | 50 | 39 | 0.0 | 2.6 | 0.04 | 0.22 | 0.04 | 91 | 1011.1 |
| 20260509163100 | 50 | 335 | 0.0 | 3.5 | 0.04 | 0.22 | 0.04 | 91 | 1011.3 |
| 20260509163057 | 50 | 11 | 1.7 | 3.5 | 0.04 | 0.22 | 0.04 | 91 | 1011.3 |
| 20260509163054 | 50 | 339 | 0.9 | 2.6 | 0.04 | 0.22 | 0.04 | 90 | 1011.5 |
| 20260509163051 | 50 | 10 | 0.9 | 2.6 | 0.04 | 0.22 | 0.04 | 90 | 1011.7 |
| 20260509163047 | 51 | 24 | 0.9 | 4.3 | 0.02 | 0.20 | 0.02 | 88 | 1011.8 |
| 20260509163040 | 51 | 360 | 1.7 | 4.3 | 0.00 | 0.18 | 0.00 | 87 | 1011.8 |
| 20260509163034 | 51 | 22 | 2.6 | 5.2 | 0.00 | 0.18 | 0.00 | 87 | 1011.8 |
| 20260509163026 | 52 | 13 | 2.6 | 8.7 | 0.00 | 0.18 | 0.00 | 86 | 1011.8 |
| 20260509163022 | 52 | 14 | 3.5 | 8.7 | 0.00 | 0.18 | 0.00 | 85 | 1011.7 |
| 20260509163004 | 52 | 319 | 4.3 | 8.7 | 0.00 | 0.18 | 0.00 | 85 | 1011.5 |
| 20260509162959 | 52 | 348 | 4.3 | 7.8 | 0.00 | 0.18 | 0.00 | 86 | 1011.6 |
| 20260509162957 | 52 | 360 | 2.6 | 4.3 | 0.00 | 0.18 | 0.00 | 87 | 1011.5 |
| 20260509162954 | 52 | 5 | 0.9 | 7.8 | 0.00 | 0.18 | 0.00 | 87 | 1011.6 |
| 20260509162947 | 52 | 360 | 3.5 | 7.8 | 0.00 | 0.18 | 0.00 | 88 | 1011.4 |
| 20260509162945 | 53 | 345 | 1.7 | 2.6 | 0.00 | 0.18 | 0.00 | 88 | 1011.6 |
| 20260509162941 | 53 | 9 | 0.9 | 1.7 | 0.00 | 0.18 | 0.00 | 87 | 1011.4 |
| 20260509162937 | 53 | 352 | 0.0 | 1.7 | 0.00 | 0.18 | 0.00 | 87 | 1011.6 |
| 20260509162932 | 53 | 352 | 0.0 | 1.7 | 0.00 | 0.18 | 0.00 | 86 | 1011.5 |
| 20260509162925 | 53 | 341 | 0.9 | 4.3 | 0.00 | 0.18 | 0.00 | 86 | 1011.8 |
| 20260509162919 | 53 | 360 | 2.6 | 9.6 | 0.00 | 0.18 | 0.00 | 85 | 1011.4 |
| 20260509162916 | 53 | 331 | 3.5 | 10.4 | 0.00 | 0.18 | 0.00 | 86 | 1011.5 |
| 20260509162911 | 54 | 5 | 1.7 | 4.3 | 0.00 | 0.18 | 0.00 | 89 | 1011.5 |
| 20260509162905 | 54 | 336 | 2.6 | 3.5 | 0.00 | 0.18 | 0.00 | 89 | 1011.6 |
| 20260509162858 | 54 | 331 | 1.7 | 7.8 | 0.01 | 0.18 | 0.00 | 88 | 1011.4 |
| 20260509162855 | 54 | 17 | 2.6 | 7.0 | 0.01 | 0.18 | 0.00 | 88 | 1011.3 |
| 20260509162848 | 54 | 12 | 3.5 | 7.0 | 0.02 | 0.18 | 0.00 | 87 | 1011.4 |
| 20260509162841 | 54 | 352 | 4.3 | 5.2 | 0.03 | 0.18 | 0.00 | 88 | 1011.2 |
| 20260509162838 | 55 | 318 | 1.7 | 4.3 | 0.03 | 0.18 | 0.18 | 89 | 1011.4 |
| 20260509162832 | 55 | 29 | 1.7 | 5.2 | 0.03 | 0.18 | 0.18 | 89 | 1010.8 |
| 20260509162825 | 55 | 338 | 1.7 | 6.1 | 0.03 | 0.18 | 0.18 | 88 | 1011.0 |
| 20260509162821 | 55 | 292 | 3.5 | 7.0 | 0.03 | 0.18 | 0.18 | 87 | 1010.5 |
| 20260509162815 | 56 | 324 | 2.6 | 7.0 | 0.02 | 0.17 | 0.17 | 86 | 1011.3 |
| 20260509162810 | 56 | 323 | 3.5 | 7.0 | 0.00 | 0.15 | 0.15 | 84 | 1011.1 |
| 20260509162804 | 57 | 352 | 2.6 | 7.0 | 0.00 | 0.15 | 0.15 | 84 | 1010.9 |
| 20260509162757 | 57 | 331 | 2.6 | 8.7 | 0.00 | 0.15 | 0.15 | 83 | 1010.8 |
| 20260509162750 | 58 | 322 | 5.2 | 10.4 | 0.00 | 0.15 | 0.15 | 82 | 1010.7 |
| 20260509162747 | 58 | 9 | 7.8 | 10.4 | 0.00 | 0.15 | 0.15 | 82 | 1011.0 |
| 20260509162743 | 58 | 309 | 5.2 | 8.7 | 0.00 | 0.15 | 0.15 | 83 | 1010.8 |
| 20260509162741 | 59 | 328 | 4.3 | 7.8 | 0.00 | 0.15 | 0.15 | 85 | 1010.7 |
| 20260509162737 | 59 | 348 | 3.5 | 7.8 | 0.00 | 0.15 | 0.15 | 85 | 1010.6 |
| 20260509162734 | 59 | 15 | 4.3 | 7.8 | 0.00 | 0.15 | 0.15 | 85 | 1010.5 |
| 20260509162731 | 59 | 9 | 2.6 | 7.8 | 0.00 | 0.15 | 0.15 | 86 | 1010.4 |
| 20260509162726 | 59 | 22 | 2.6 | 7.8 | 0.00 | 0.15 | 0.15 | 86 | 1010.4 |
| 20260509162723 | 60 | 29 | 2.6 | 7.0 | 0.00 | 0.15 | 0.15 | 87 | 1010.4 |
| 20260509162719 | 60 | 360 | 2.6 | 7.0 | 0.00 | 0.15 | 0.15 | 86 | 1010.6 |
| 20260509162716 | 60 | 281 | 2.6 | 5.2 | 0.00 | 0.15 | 0.15 | 86 | 1010.6 |
| 20260509162713 | 60 | 324 | 1.7 | 6.1 | 0.00 | 0.15 | 0.15 | 86 | 1010.6 |
| 20260509162709 | 60 | 342 | 2.6 | 8.7 | 0.00 | 0.15 | 0.15 | 85 | 1010.3 |
| 20260509162703 | 61 | 325 | 3.5 | 7.8 | 0.00 | 0.15 | 0.15 | 84 | 1010.8 |
| 20260509162656 | 61 | 350 | 2.6 | 8.7 | 0.00 | 0.15 | 0.15 | 83 | 1010.6 |
| 20260509162652 | 61 | 311 | 3.5 | 7.8 | 0.00 | 0.15 | 0.15 | 82 | 1010.6 |
| 20260509162645 | 62 | 321 | 3.5 | 10.4 | 0.00 | 0.15 | 0.15 | 82 | 1010.6 |
| 20260509162637 | 62 | 328 | 2.6 | 10.4 | 0.00 | 0.15 | 0.15 | 83 | 1010.6 |
| 20260509162633 | 62 | 315 | 6.1 | 10.4 | 0.00 | 0.15 | 0.15 | 83 | 1010.5 |
| 20260509162629 | 63 | 296 | 5.2 | 10.4 | 0.00 | 0.15 | 0.15 | 82 | 1010.4 |
| 20260509162625 | 63 | 320 | 5.2 | 8.7 | 0.00 | 0.15 | 0.15 | 83 | 1010.6 |
| 20260509162622 | 63 | 311 | 4.3 | 13.9 | 0.00 | 0.15 | 0.15 | 84 | 1010.3 |
| 20260509162618 | 64 | 317 | 7.0 | 13.9 | 0.00 | 0.15 | 0.15 | 86 | 1010.1 |
| 20260509162616 | 64 | 294 | 0.9 | 4.3 | 0.00 | 0.15 | 0.15 | 88 | 1010.2 |
| 20260509162611 | 64 | 269 | 0.0 | 5.2 | 0.00 | 0.15 | 0.15 | 88 | 1010.0 |
| 20260509162607 | 64 | 221 | 0.0 | 1.7 | 0.00 | 0.15 | 0.15 | 87 | 1009.8 |
| 20260509162559 | 65 | 195 | 0.9 | 1.7 | 0.00 | 0.15 | 0.15 | 87 | 1009.7 |
| 20260509162556 | 65 | 246 | 0.9 | 1.7 | 0.00 | 0.15 | 0.15 | 86 | 1009.8 |
| 20260509162552 | 65 | 246 | 0.9 | 3.5 | 0.00 | 0.15 | 0.15 | 85 | 1009.6 |
| 20260509162548 | 65 | 267 | 0.9 | 2.6 | 0.00 | 0.15 | 0.15 | 85 | 1009.2 |
| 20260509162545 | 66 | 314 | 0.0 | 2.6 | 0.00 | 0.15 | 0.15 | 84 | 1009.1 |
| 20260509162542 | 66 | 265 | 0.9 | 2.6 | 0.00 | 0.15 | 0.15 | 84 | 1009.1 |
| 20260509162535 | 66 | 279 | 0.0 | 1.7 | 0.00 | 0.15 | 0.15 | 83 | 1009.0 |
| 20260509162529 | 66 | 279 | 0.0 | 1.7 | 0.00 | 0.15 | 0.15 | 83 | 1009.1 |
| 20260509162525 | 66 | 291 | 0.0 | 1.7 | 0.00 | 0.15 | 0.15 | 83 | 1008.9 |
| 20260509162521 | 66 | 273 | 0.0 | 0.9 | 0.00 | 0.15 | 0.15 | 82 | 1008.9 |
| 20260509162518 | 66 | 273 | 0.0 | 1.7 | 0.00 | 0.15 | 0.15 | 82 | 1009.0 |
| 20260509162512 | 66 | 286 | 0.0 | 2.6 | 0.00 | 0.15 | 0.15 | 82 | 1009.0 |
| 20260509162506 | 66 | 273 | 0.0 | 5.2 | 0.00 | 0.15 | 0.15 | 82 | 1009.0 |
| 20260509162501 | 66 | 219 | 0.9 | 5.2 | 0.00 | 0.15 | 0.15 | 82 | 1008.9 |
| 20260509162455 | 66 | 246 | 0.9 | 4.3 | 0.00 | 0.15 | 0.15 | 82 | 1008.9 |
| 20260509162452 | 66 | 308 | 0.9 | 4.3 | 0.00 | 0.15 | 0.15 | 83 | 1009.0 |
| 20260509162448 | 66 | 273 | 1.7 | 4.3 | 0.00 | 0.15 | 0.15 | 83 | 1009.0 |
| 20260509162442 | 66 | 248 | 0.9 | 3.5 | 0.00 | 0.15 | 0.15 | 83 | 1009.0 |
| 20260509162434 | 66 | 222 | 0.0 | 2.6 | 0.00 | 0.15 | 0.15 | 83 | 1009.0 |
| 20260509162430 | 66 | 214 | 1.7 | 3.5 | 0.00 | 0.15 | 0.15 | 83 | 1009.0 |
| 20260509162427 | 65 | 290 | 0.0 | 1.7 | 0.00 | 0.15 | 0.15 | 84 | 1009.0 |
| 20260509162423 | 65 | 234 | 0.0 | 1.7 | 0.00 | 0.15 | 0.15 | 83 | 1009.0 |
| 20260509162417 | 66 | 250 | 0.0 | 3.5 | 0.00 | 0.15 | 0.15 | 83 | 1008.7 |
| 20260509162413 | 65 | 232 | 0.9 | 3.5 | 0.00 | 0.15 | 0.15 | 82 | 1008.6 |
| 20260509162410 | 66 | 229 | 2.6 | 6.1 | 0.00 | 0.15 | 0.15 | 82 | 1008.4 |
| 20260509162403 | 66 | 220 | 2.6 | 5.2 | 0.00 | 0.15 | 0.15 | 82 | 1008.2 |
| 20260509162358 | 66 | 244 | 2.6 | 5.2 | 0.00 | 0.15 | 0.15 | 81 | 1008.4 |
| 20260509162353 | 66 | 278 | 1.7 | 4.3 | 0.00 | 0.15 | 0.15 | 81 | 1008.3 |
| 20260509162347 | 66 | 198 | 3.5 | 6.1 | 0.00 | 0.15 | 0.15 | 82 | 1008.4 |
| 20260509162344 | 66 | 220 | 2.6 | 4.3 | 0.00 | 0.15 | 0.15 | 81 | 1008.2 |
| 20260509162341 | 66 | 313 | 1.7 | 4.3 | 0.00 | 0.15 | 0.15 | 81 | 1008.3 |
| 20260509162337 | 66 | 256 | 1.7 | 5.2 | 0.00 | 0.15 | 0.15 | 81 | 1008.5 |
| 20260509162331 | 66 | 206 | 1.7 | 7.8 | 0.00 | 0.15 | 0.15 | 82 | 1008.3 |
| 20260509162326 | 66 | 209 | 2.6 | 7.8 | 0.00 | 0.15 | 0.15 | 81 | 1008.3 |
| 20260509162323 | 66 | 226 | 3.5 | 7.8 | 0.00 | 0.15 | 0.15 | 82 | 1008.3 |
| 20260509162319 | 66 | 277 | 1.7 | 7.8 | 0.00 | 0.15 | 0.15 | 82 | 1008.4 |
| 20260509162316 | 66 | 222 | 1.7 | 6.1 | 0.00 | 0.15 | 0.15 | 82 | 1008.5 |
| 20260509162314 | 66 | 269 | 1.7 | 8.7 | 0.00 | 0.15 | 0.15 | 81 | 1008.4 |
| 20260509162310 | 66 | 200 | 3.5 | 7.8 | 0.00 | 0.15 | 0.15 | 81 | 1008.4 |
| 20260509162259 | 66 | 263 | 1.7 | 6.1 | 0.00 | 0.15 | 0.15 | 82 | 1008.4 |
| 20260509162256 | 66 | 290 | 1.7 | 7.8 | 0.00 | 0.15 | 0.15 | 81 | 1008.3 |
| 20260509162252 | 66 | 292 | 3.5 | 9.6 | 0.00 | 0.15 | 0.15 | 81 | 1008.4 |
| 20260509162249 | 66 | 230 | 5.2 | 9.6 | 0.00 | 0.15 | 0.15 | 80 | 1008.5 |
| 20260509162242 | 66 | 211 | 2.6 | 8.7 | 0.00 | 0.15 | 0.15 | 82 | 1008.6 |
| 20260509162240 | 66 | 212 | 4.3 | 8.7 | 0.00 | 0.15 | 0.15 | 81 | 1008.7 |
| 20260509162232 | 66 | 185 | 2.6 | 13.9 | 0.00 | 0.15 | 0.15 | 82 | 1008.6 |
| 20260509162229 | 66 | 275 | 4.3 | 12.2 | 0.00 | 0.15 | 0.15 | 82 | 1008.6 |
| 20260509162226 | 66 | 207 | 5.2 | 12.2 | 0.00 | 0.15 | 0.15 | 83 | 1008.7 |
| 20260509162222 | 65 | 242 | 6.1 | 12.2 | 0.00 | 0.15 | 0.15 | 83 | 1008.7 |
| 20260509162218 | 65 | 215 | 5.2 | 12.2 | 0.00 | 0.15 | 0.15 | 83 | 1008.8 |
| 20260509162215 | 65 | 232 | 5.2 | 12.2 | 0.00 | 0.15 | 0.15 | 84 | 1008.8 |
| 20260509162210 | 65 | 199 | 7.0 | 12.2 | 0.00 | 0.15 | 0.15 | 84 | 1008.8 |
| 20260509162206 | 63 | 240 | 5.2 | 13.0 | 0.00 | 0.15 | 0.15 | 87 | 1008.8 |
| 20260509162200 | 63 | 235 | 5.2 | 13.0 | 0.00 | 0.15 | 0.15 | 87 | 1008.9 |
| 20260509162158 | 62 | 211 | 5.2 | 11.3 | 0.00 | 0.15 | 0.15 | 87 | 1008.9 |
| 20260509162155 | 62 | 242 | 6.1 | 12.2 | 0.00 | 0.15 | 0.15 | 88 | 1009.1 |
| 20260509162150 | 62 | 229 | 7.0 | 12.2 | 0.00 | 0.15 | 0.15 | 88 | 1009.0 |
| 20260509162144 | 62 | 249 | 4.3 | 10.4 | 0.00 | 0.15 | 0.15 | 89 | 1009.1 |
| 20260509162141 | 61 | 204 | 5.2 | 9.6 | 0.00 | 0.15 | 0.15 | 89 | 1009.2 |
| 20260509162139 | 61 | 227 | 5.2 | 12.2 | 0.00 | 0.15 | 0.15 | 89 | 1009.1 |
| 20260509162135 | 61 | 229 | 7.0 | 12.2 | 0.00 | 0.15 | 0.15 | 89 | 1009.0 |
| 20260509162130 | 61 | 191 | 6.1 | 13.9 | 0.00 | 0.15 | 0.15 | 89 | 1009.1 |
| 20260509162126 | 61 | 233 | 5.2 | 13.9 | 0.00 | 0.15 | 0.15 | 90 | 1009.1 |
| 20260509162122 | 61 | 237 | 7.8 | 13.9 | 0.00 | 0.15 | 0.15 | 90 | 1009.1 |
| 20260509162118 | 60 | 238 | 4.3 | 9.6 | 0.00 | 0.15 | 0.15 | 91 | 1009.1 |
| 20260509162115 | 60 | 217 | 4.3 | 9.6 | 0.00 | 0.15 | 0.15 | 91 | 1009.1 |
| 20260509162112 | 60 | 220 | 3.5 | 7.0 | 0.00 | 0.15 | 0.15 | 91 | 1009.1 |
| 20260509162106 | 60 | 204 | 4.3 | 14.8 | 0.00 | 0.15 | 0.15 | 91 | 1009.2 |
| 20260509162059 | 60 | 217 | 7.0 | 11.3 | 0.00 | 0.15 | 0.15 | 91 | 1009.2 |
| 20260509162055 | 60 | 207 | 4.3 | 11.3 | 0.00 | 0.15 | 0.15 | 91 | 1009.1 |
| 20260509162052 | 60 | 226 | 3.5 | 11.3 | 0.00 | 0.15 | 0.15 | 91 | 1009.1 |
| 20260509162045 | 60 | 212 | 6.1 | 12.2 | 0.01 | 0.15 | 0.15 | 91 | 1009.3 |
| 20260509162041 | 60 | 207 | 5.2 | 13.0 | 0.01 | 0.15 | 0.15 | 92 | 1009.3 |
| 20260509162036 | 59 | 186 | 6.1 | 15.6 | 0.02 | 0.15 | 0.15 | 92 | 1009.3 |
| 20260509162029 | 59 | 207 | 7.0 | 15.6 | 0.02 | 0.15 | 0.15 | 92 | 1009.3 |
| 20260509162026 | 59 | 192 | 7.8 | 15.6 | 0.03 | 0.15 | 0.15 | 92 | 1009.3 |
| 20260509162021 | 59 | 197 | 7.0 | 13.9 | 0.05 | 0.15 | 0.15 | 93 | 1009.2 |
| 20260509162016 | 59 | 202 | 7.0 | 13.0 | 0.05 | 0.15 | 0.15 | 93 | 1009.2 |
| 20260509162011 | 59 | 212 | 7.8 | 13.0 | 0.04 | 0.14 | 0.14 | 93 | 1009.3 |
| 20260509162007 | 59 | 191 | 3.5 | 10.4 | 0.04 | 0.14 | 0.14 | 93 | 1009.2 |
| 20260509161959 | 59 | 263 | 6.1 | 10.4 | 0.04 | 0.14 | 0.14 | 93 | 1009.7 |
| 20260509161956 | 59 | 201 | 5.2 | 9.6 | 0.04 | 0.13 | 0.13 | 92 | 1009.7 |
| 20260509161954 | 59 | 220 | 4.3 | 11.3 | 0.04 | 0.13 | 0.13 | 92 | 1010.0 |
| 20260509161949 | 59 | 212 | 5.2 | 12.2 | 0.03 | 0.12 | 0.12 | 92 | 1010.1 |
| 20260509161947 | 59 | 198 | 6.1 | 12.2 | 0.03 | 0.11 | 0.11 | 92 | 1010.0 |
| 20260509161943 | 59 | 200 | 7.0 | 12.2 | 0.04 | 0.11 | 0.11 | 92 | 1009.9 |
| 20260509161940 | 59 | 220 | 5.2 | 12.2 | 0.03 | 0.10 | 0.10 | 92 | 1009.9 |
| 20260509161938 | 59 | 199 | 5.2 | 12.2 | 0.04 | 0.10 | 0.10 | 92 | 1009.8 |
| 20260509161934 | 59 | 183 | 5.2 | 11.3 | 0.04 | 0.10 | 0.10 | 92 | 1009.7 |
| 20260509161926 | 59 | 186 | 3.5 | 11.3 | 0.04 | 0.10 | 0.10 | 92 | 1009.6 |
| 20260509161922 | 59 | 227 | 4.3 | 9.6 | 0.06 | 0.10 | 0.10 | 92 | 1009.7 |
| 20260509161919 | 59 | 139 | 4.3 | 9.6 | 0.07 | 0.10 | 0.10 | 91 | 1009.5 |
| 20260509161916 | 59 | 175 | 4.3 | 9.6 | 0.06 | 0.09 | 0.09 | 91 | 1009.6 |
| 20260509161914 | 59 | 207 | 3.5 | 9.6 | 0.07 | 0.09 | 0.09 | 91 | 1009.5 |
| 20260509161910 | 59 | 209 | 3.5 | 8.7 | 0.06 | 0.08 | 0.08 | 91 | 1010.0 |
| 20260509161858 | 60 | 209 | 3.5 | 7.8 | 0.06 | 0.07 | 0.07 | 90 | 1010.1 |
| 20260509161855 | 59 | 204 | 3.5 | 8.7 | 0.06 | 0.06 | 0.06 | 90 | 1010.1 |
| 20260509161853 | 59 | 193 | 5.2 | 8.7 | 0.06 | 0.06 | 0.06 | 89 | 1010.1 |
| 20260509161849 | 60 | 184 | 4.3 | 9.6 | 0.06 | 0.06 | 0.06 | 89 | 1010.1 |
| 20260509161845 | 60 | 192 | 3.5 | 10.4 | 0.05 | 0.05 | 0.05 | 88 | 1010.2 |
| 20260509161841 | 60 | 213 | 6.1 | 10.4 | 0.04 | 0.04 | 0.04 | 87 | 1010.2 |
| 20260509161839 | 60 | 202 | 4.3 | 10.4 | 0.03 | 0.03 | 0.03 | 87 | 1010.1 |
| 20260509161831 | 60 | 198 | 2.6 | 9.6 | 0.02 | 0.02 | 0.02 | 85 | 1010.0 |
| 20260509161825 | 61 | 211 | 4.3 | 7.8 | 0.02 | 0.02 | 0.02 | 84 | 1010.0 |
| 20260509161823 | 61 | 247 | 2.6 | 7.0 | 0.01 | 0.01 | 0.01 | 84 | 1010.1 |
| 20260509161819 | 61 | 238 | 3.5 | 12.2 | 0.01 | 0.01 | 0.01 | 83 | 1010.1 |
| 20260509161817 | 61 | 201 | 4.3 | 12.2 | 0.00 | 0.00 | 0.00 | 82 | 1010.1 |
| 20260509161809 | 62 | 188 | 4.3 | 12.2 | 0.00 | 0.00 | 0.00 | 81 | 1010.2 |
| 20260509161806 | 62 | 169 | 3.5 | 10.4 | 0.00 | 0.00 | 0.00 | 78 | 1010.3 |
| 20260509161759 | 62 | 222 | 3.5 | 13.0 | 0.00 | 0.00 | 0.00 | 78 | 1010.4 |
| 20260509161755 | 63 | 242 | 3.5 | 11.3 | 0.00 | 0.00 | 0.00 | 76 | 1010.6 |
| 20260509161753 | 63 | 200 | 5.2 | 11.3 | 0.00 | 0.00 | 0.00 | 76 | 1010.5 |
| 20260509161749 | 63 | 219 | 5.2 | 12.2 | 0.00 | 0.00 | 0.00 | 76 | 1010.6 |
| 20260509161741 | 63 | 202 | 5.2 | 11.3 | 0.00 | 0.00 | 0.00 | 76 | 1010.1 |
| 20260509161738 | 63 | 223 | 6.1 | 11.3 | 0.00 | 0.00 | 0.00 | 75 | 1010.2 |
| 20260509161734 | 63 | 205 | 3.5 | 11.3 | 0.00 | 0.00 | 0.00 | 75 | 1010.0 |
| 20260509161729 | 63 | 246 | 3.5 | 13.0 | 0.00 | 0.00 | 0.00 | 75 | 1009.9 |
| 20260509161726 | 63 | 215 | 5.2 | 11.3 | 0.00 | 0.00 | 0.00 | 75 | 1009.9 |
| 20260509161721 | 63 | 219 | 3.5 | 8.7 | 0.00 | 0.00 | 0.00 | 74 | 1009.9 |
| 20260509161719 | 63 | 194 | 4.3 | 13.0 | 0.00 | 0.00 | 0.00 | 74 | 1009.8 |
| 20260509161714 | 63 | 182 | 4.3 | 13.0 | 0.00 | 0.00 | 0.00 | 73 | 1009.6 |
| 20260509161709 | 63 | 200 | 4.3 | 10.4 | 0.00 | 0.00 | 0.00 | 73 | 1009.7 |
| 20260509161705 | 63 | 192 | 7.0 | 11.3 | 0.00 | 0.00 | 0.00 | 72 | 1009.5 |
| 20260509161702 | 63 | 212 | 5.2 | 11.3 | 0.00 | 0.00 | 0.00 | 72 | 1009.3 |
| 20260509161657 | 63 | 218 | 7.0 | 11.3 | 0.00 | 0.00 | 0.00 | 72 | 1009.4 |
| 20260509161655 | 63 | 211 | 6.1 | 9.6 | 0.00 | 0.00 | 0.00 | 72 | 1009.4 |
| 20260509161651 | 63 | 268 | 5.2 | 9.6 | 0.00 | 0.00 | 0.00 | 71 | 1009.3 |
| 20260509161644 | 63 | 202 | 2.6 | 11.3 | 0.00 | 0.00 | 0.00 | 71 | 1009.3 |
| 20260509161635 | 64 | 194 | 2.6 | 10.4 | 0.00 | 0.00 | 0.00 | 70 | 1009.4 |
| 20260509161632 | 64 | 188 | 6.1 | 10.4 | 0.00 | 0.00 | 0.00 | 70 | 1009.4 |
| 20260509161625 | 64 | 213 | 7.0 | 10.4 | 0.00 | 0.00 | 0.00 | 69 | 1009.3 |
| 20260509161621 | 64 | 234 | 6.1 | 10.4 | 0.00 | 0.00 | 0.00 | 69 | 1009.3 |
| 20260509161618 | 64 | 196 | 6.1 | 9.6 | 0.00 | 0.00 | 0.00 | 68 | 1009.4 |
| 20260509161614 | 64 | 223 | 5.2 | 9.6 | 0.00 | 0.00 | 0.00 | 68 | 1009.3 |
| 20260509161609 | 64 | 209 | 3.5 | 8.7 | 0.00 | 0.00 | 0.00 | 67 | 1009.3 |
| 20260509161605 | 65 | 188 | 4.3 | 11.3 | 0.00 | 0.00 | 0.00 | 66 | 1009.4 |
| 20260509161601 | 65 | 200 | 6.1 | 11.3 | 0.00 | 0.00 | 0.00 | 66 | 1009.3 |
| 20260509161558 | 65 | 193 | 4.3 | 10.4 | 0.00 | 0.00 | 0.00 | 66 | 1009.3 |
| 20260509161556 | 65 | 194 | 4.3 | 11.3 | 0.00 | 0.00 | 0.00 | 65 | 1009.6 |
| 20260509161553 | 65 | 209 | 6.1 | 13.0 | 0.00 | 0.00 | 0.00 | 64 | 1009.7 |
| 20260509161537 | 66 | 144 | 6.1 | 11.3 | 0.00 | 0.00 | 0.00 | 63 | 1009.5 |
| 20260509161535 | 66 | 205 | 5.2 | 13.9 | 0.00 | 0.00 | 0.00 | 63 | 1009.4 |
| 20260509161530 | 66 | 175 | 6.1 | 13.9 | 0.00 | 0.00 | 0.00 | 62 | 1009.5 |
| 20260509161520 | 66 | 213 | 5.2 | 11.3 | 0.00 | 0.00 | 0.00 | 62 | 1009.6 |
| 20260509161504 | 66 | 212 | 7.0 | 11.3 | 0.00 | 0.00 | 0.00 | 62 | 1009.4 |
| 20260509161458 | 66 | 233 | 4.3 | 10.4 | 0.00 | 0.00 | 0.00 | 62 | 1009.5 |
| 20260509161455 | 66 | 223 | 4.3 | 10.4 | 0.00 | 0.00 | 0.00 | 62 | 1009.7 |
| 20260509161452 | 66 | 154 | 5.2 | 10.4 | 0.00 | 0.00 | 0.00 | 61 | 1009.8 |
| 20260509161446 | 67 | 215 | 6.1 | 9.6 | 0.00 | 0.00 | 0.00 | 61 | 1009.7 |
| 20260509161443 | 67 | 212 | 6.1 | 10.4 | 0.00 | 0.00 | 0.00 | 60 | 1009.9 |
| 20260509161439 | 67 | 201 | 5.2 | 9.6 | 0.00 | 0.00 | 0.00 | 60 | 1009.9 |
| 20260509161432 | 67 | 196 | 4.3 | 13.0 | 0.00 | 0.00 | 0.00 | 59 | 1009.9 |
| 20260509161428 | 67 | 204 | 6.1 | 8.7 | 0.00 | 0.00 | 0.00 | 59 | 1010.1 |
| 20260509161423 | 67 | 235 | 6.1 | 8.7 | 0.00 | 0.00 | 0.00 | 59 | 1010.2 |
| 20260509161420 | 68 | 232 | 5.2 | 8.7 | 0.00 | 0.00 | 0.00 | 58 | 1010.2 |
| 20260509161415 | 68 | 221 | 3.5 | 10.4 | 0.00 | 0.00 | 0.00 | 58 | 1010.3 |
| 20260509161409 | 68 | 213 | 4.3 | 10.4 | 0.00 | 0.00 | 0.00 | 57 | 1010.4 |
| 20260509161406 | 68 | 215 | 3.5 | 11.3 | 0.00 | 0.00 | 0.00 | 57 | 1010.4 |
| 20260509161401 | 68 | 207 | 5.2 | 13.0 | 0.00 | 0.00 | 0.00 | 57 | 1010.4 |
| 20260509161354 | 68 | 232 | 6.1 | 10.4 | 0.00 | 0.00 | 0.00 | 57 | 1010.4 |
| 20260509161351 | 68 | 240 | 4.3 | 10.4 | 0.00 | 0.00 | 0.00 | 57 | 1010.5 |
| 20260509161344 | 68 | 259 | 4.3 | 10.4 | 0.00 | 0.00 | 0.00 | 56 | 1010.5 |
| 20260509161342 | 68 | 217 | 5.2 | 17.4 | 0.00 | 0.00 | 0.00 | 56 | 1010.7 |
| 20260509161337 | 69 | 225 | 6.1 | 16.5 | 0.00 | 0.00 | 0.00 | 56 | 1010.8 |
| 20260509161333 | 69 | 217 | 6.1 | 13.0 | 0.00 | 0.00 | 0.00 | 55 | 1010.9 |
| 20260509161325 | 69 | 232 | 5.2 | 13.0 | 0.00 | 0.00 | 0.00 | 55 | 1010.8 |
| 20260509161322 | 69 | 208 | 4.3 | 8.7 | 0.00 | 0.00 | 0.00 | 55 | 1010.9 |
| 20260509161320 | 69 | 200 | 3.5 | 12.2 | 0.00 | 0.00 | 0.00 | 55 | 1011.0 |
| 20260509161316 | 69 | 191 | 6.1 | 12.2 | 0.00 | 0.00 | 0.00 | 55 | 1011.0 |
| 20260509161310 | 69 | 203 | 6.1 | 13.9 | 0.00 | 0.00 | 0.00 | 54 | 1011.1 |
| 20260509161304 | 69 | 170 | 4.3 | 11.3 | 0.00 | 0.00 | 0.00 | 54 | 1011.1 |
| 20260509161257 | 69 | 214 | 4.3 | 9.6 | 0.00 | 0.00 | 0.00 | 54 | 1011.0 |
| 20260509161254 | 69 | 213 | 5.2 | 12.2 | 0.00 | 0.00 | 0.00 | 53 | 1010.9 |
| 20260509161251 | 69 | 173 | 6.1 | 12.2 | 0.00 | 0.00 | 0.00 | 53 | 1011.0 |
| 20260509161248 | 68 | 213 | 6.1 | 11.3 | 0.00 | 0.00 | 0.00 | 53 | 1011.0 |
| 20260509161244 | 68 | 178 | 6.1 | 10.4 | 0.00 | 0.00 | 0.00 | 53 | 1010.9 |
| 20260509161240 | 68 | 180 | 5.2 | 10.4 | 0.00 | 0.00 | 0.00 | 52 | 1010.9 |
| 20260509161236 | 68 | 208 | 5.2 | 10.4 | 0.00 | 0.00 | 0.00 | 52 | 1011.0 |
| 20260509161234 | 68 | 188 | 3.5 | 10.4 | 0.00 | 0.00 | 0.00 | 52 | 1010.8 |
| 20260509161226 | 68 | 199 | 4.3 | 9.6 | 0.00 | 0.00 | 0.00 | 51 | 1010.8 |
| 20260509161223 | 68 | 198 | 4.3 | 7.8 | 0.00 | 0.00 | 0.00 | 50 | 1010.8 |
| 20260509161219 | 68 | 186 | 4.3 | 8.7 | 0.00 | 0.00 | 0.00 | 49 | 1010.7 |
| 20260509161216 | 68 | 201 | 4.3 | 9.6 | 0.00 | 0.00 | 0.00 | 49 | 1010.8 |
| 20260509161207 | 68 | 198 | 4.3 | 9.6 | 0.00 | 0.00 | 0.00 | 48 | 1010.8 |
| 20260509161202 | 69 | 193 | 3.5 | 11.3 | 0.00 | 0.00 | 0.00 | 47 | 1010.8 |
| 20260509161159 | 69 | 263 | 3.5 | 11.3 | 0.00 | 0.00 | 0.00 | 46 | 1010.7 |
| 20260509161157 | 69 | 220 | 6.1 | 9.6 | 0.00 | 0.00 | 0.00 | 46 | 1010.8 |
| 20260509161152 | 69 | 189 | 5.2 | 9.6 | 0.00 | 0.00 | 0.00 | 45 | 1010.8 |
| 20260509161148 | 69 | 193 | 3.5 | 7.0 | 0.00 | 0.00 | 0.00 | 44 | 1010.8 |
| 20260509161143 | 69 | 161 | 4.3 | 6.1 | 0.00 | 0.00 | 0.00 | 44 | 1010.7 |
| 20260509161139 | 69 | 150 | 2.6 | 6.1 | 0.00 | 0.00 | 0.00 | 44 | 1010.9 |
| 20260509161136 | 69 | 204 | 2.6 | 7.8 | 0.00 | 0.00 | 0.00 | 43 | 1010.8 |
| 20260509161129 | 70 | 208 | 4.3 | 8.7 | 0.00 | 0.00 | 0.00 | 42 | 1010.9 |
| 20260509161126 | 70 | 200 | 3.5 | 9.6 | 0.00 | 0.00 | 0.00 | 42 | 1011.0 |
| 20260509161123 | 70 | 188 | 3.5 | 9.6 | 0.00 | 0.00 | 0.00 | 41 | 1011.0 |
| 20260509161116 | 70 | 195 | 6.1 | 11.3 | 0.00 | 0.00 | 0.00 | 41 | 1010.9 |
| 20260509161113 | 70 | 216 | 4.3 | 7.8 | 0.00 | 0.00 | 0.00 | 40 | 1010.9 |
| 20260509161108 | 70 | 184 | 4.3 | 11.3 | 0.00 | 0.00 | 0.00 | 39 | 1010.7 |
| 20260509161059 | 71 | 179 | 2.6 | 8.7 | 0.00 | 0.00 | 0.00 | 39 | 1010.5 |
| 20260509161056 | 71 | 210 | 5.2 | 11.3 | 0.00 | 0.00 | 0.00 | 39 | 1010.6 |
| 20260509161052 | 71 | 184 | 6.1 | 11.3 | 0.00 | 0.00 | 0.00 | 38 | 1010.6 |
| 20260509161049 | 71 | 212 | 3.5 | 8.7 | 0.00 | 0.00 | 0.00 | 38 | 1010.6 |
| 20260509161042 | 71 | 206 | 5.2 | 9.6 | 0.00 | 0.00 | 0.00 | 38 | 1010.5 |
| 20260509161039 | 71 | 213 | 3.5 | 7.8 | 0.00 | 0.00 | 0.00 | 38 | 1010.5 |
| 20260509161033 | 72 | 190 | 4.3 | 11.3 | 0.00 | 0.00 | 0.00 | 37 | 1010.4 |
| 20260509161029 | 72 | 222 | 5.2 | 11.3 | 0.00 | 0.00 | 0.00 | 37 | 1010.3 |
| 20260509161023 | 72 | 200 | 4.3 | 10.4 | 0.00 | 0.00 | 0.00 | 36 | 1010.3 |
| 20260509161019 | 73 | 209 | 4.3 | 7.8 | 0.00 | 0.00 | 0.00 | 36 | 1010.1 |
| 20260509161014 | 73 | 218 | 3.5 | 8.7 | 0.00 | 0.00 | 0.00 | 36 | 1010.0 |
| 20260509161009 | 73 | 200 | 4.3 | 9.6 | 0.00 | 0.00 | 0.00 | 35 | 1010.0 |
| 20260509160959 | 73 | 175 | 6.1 | 9.6 | 0.00 | 0.00 | 0.00 | 35 | 1010.0 |
| 20260509160955 | 74 | 210 | 4.3 | 10.4 | 0.00 | 0.00 | 0.00 | 35 | 1009.9 |
| 20260509160952 | 74 | 229 | 5.2 | 10.4 | 0.00 | 0.00 | 0.00 | 34 | 1009.9 |
| 20260509160949 | 74 | 217 | 6.1 | 9.6 | 0.00 | 0.00 | 0.00 | 35 | 1009.9 |
| 20260509160944 | 75 | 223 | 5.2 | 9.6 | 0.00 | 0.00 | 0.00 | 34 | 1009.9 |
| 20260509160941 | 75 | 223 | 4.3 | 15.6 | 0.00 | 0.00 | 0.00 | 34 | 1009.9 |
| 20260509160936 | 75 | 223 | 6.1 | 15.6 | 0.00 | 0.00 | 0.00 | 35 | 1009.7 |
| 20260509160929 | 75 | 200 | 6.1 | 13.0 | 0.00 | 0.00 | 0.00 | 34 | 1009.7 |
| 20260509160926 | 75 | 243 | 4.3 | 13.0 | 0.00 | 0.00 | 0.00 | 35 | 1009.6 |
| 20260509160923 | 75 | 211 | 4.3 | 11.3 | 0.00 | 0.00 | 0.00 | 35 | 1009.6 |
| 20260509160921 | 76 | 209 | 6.1 | 12.2 | 0.00 | 0.00 | 0.00 | 34 | 1009.7 |
| 20260509160915 | 76 | 194 | 5.2 | 14.8 | 0.00 | 0.00 | 0.00 | 35 | 1009.7 |
| 20260509160910 | 76 | 200 | 5.2 | 14.8 | 0.00 | 0.00 | 0.00 | 35 | 1009.6 |
| 20260509160906 | 76 | 221 | 8.7 | 14.8 | 0.00 | 0.00 | 0.00 | 35 | 1009.6 |
| 20260509160903 | 76 | 213 | 6.1 | 11.3 | 0.00 | 0.00 | 0.00 | 35 | 1009.6 |
| 20260509160858 | 76 | 196 | 7.0 | 11.3 | 0.00 | 0.00 | 0.00 | 35 | 1009.7 |
| 20260509160855 | 76 | 196 | 6.1 | 13.0 | 0.00 | 0.00 | 0.00 | 35 | 1009.8 |
| 20260509160852 | 76 | 177 | 6.1 | 13.0 | 0.00 | 0.00 | 0.00 | 35 | 1009.8 |
| 20260509160846 | 77 | 200 | 6.1 | 12.2 | 0.00 | 0.00 | 0.00 | 35 | 1009.8 |
| 20260509160842 | 77 | 208 | 7.8 | 14.8 | 0.00 | 0.00 | 0.00 | 33 | 1010.0 |
| 20260509160838 | 77 | 190 | 7.0 | 14.8 | 0.00 | 0.00 | 0.00 | 33 | 1009.9 |
| 20260509160834 | 78 | 213 | 7.0 | 14.8 | 0.00 | 0.00 | 0.00 | 32 | 1009.7 |
| 20260509160826 | 79 | 211 | 5.2 | 17.4 | 0.00 | 0.00 | 0.00 | 31 | 1009.6 |
| 20260509160823 | 79 | 210 | 7.8 | 17.4 | 0.00 | 0.00 | 0.00 | 31 | 1009.6 |
| 20260509160819 | 80 | 264 | 9.6 | 14.8 | 0.00 | 0.00 | 0.00 | 30 | 1009.3 |
| 20260509160815 | 80 | 218 | 5.2 | 20.9 | 0.00 | 0.00 | 0.00 | 32 | 1009.4 |
| 20260509160811 | 79 | 217 | 6.1 | 20.9 | 0.00 | 0.00 | 0.00 | 31 | 1009.4 |
| 20260509160806 | 80 | 208 | 5.2 | 20.0 | 0.00 | 0.00 | 0.00 | 31 | 1009.4 |
| 20260509160802 | 80 | 200 | 10.4 | 19.1 | 0.00 | 0.00 | 0.00 | 31 | 1009.4 |
| 20260509160759 | 80 | 200 | 9.6 | 19.1 | 0.00 | 0.00 | 0.00 | 31 | 1009.3 |
| 20260509160756 | 80 | 207 | 8.7 | 19.1 | 0.00 | 0.00 | 0.00 | 30 | 1009.3 |
| 20260509160753 | 80 | 191 | 9.6 | 17.4 | 0.00 | 0.00 | 0.00 | 30 | 1009.3 |
| 20260509160748 | 79 | 194 | 7.8 | 18.2 | 0.00 | 0.00 | 0.00 | 30 | 1009.4 |
| 20260509160743 | 79 | 208 | 10.4 | 25.2 | 0.00 | 0.00 | 0.00 | 31 | 1009.3 |
| 20260509160736 | 80 | 223 | 8.7 | 16.5 | 0.00 | 0.00 | 0.00 | 33 | 1009.4 |
| 20260509160733 | 80 | 221 | 9.6 | 20.0 | 0.00 | 0.00 | 0.00 | 32 | 1009.4 |
| 20260509160729 | 80 | 208 | 8.7 | 14.8 | 0.00 | 0.00 | 0.00 | 31 | 1009.1 |
| 20260509160726 | 80 | 233 | 8.7 | 21.7 | 0.00 | 0.00 | 0.00 | 31 | 1009.4 |
| 20260509160722 | 80 | 194 | 11.3 | 21.7 | 0.00 | 0.00 | 0.00 | 30 | 1009.3 |
| 20260509160719 | 80 | 182 | 10.4 | 20.0 | 0.00 | 0.00 | 0.00 | 32 | 1009.4 |
| 20260509160714 | 80 | 212 | 6.1 | 17.4 | 0.00 | 0.00 | 0.00 | 34 | 1009.3 |
| 20260509160708 | 80 | 209 | 6.1 | 20.0 | 0.00 | 0.00 | 0.00 | 35 | 1009.8 |
| 20260509160700 | 80 | 198 | 7.8 | 16.5 | 0.00 | 0.00 | 0.00 | 34 | 1009.6 |
| 20260509160654 | 80 | 240 | 7.8 | 19.1 | 0.00 | 0.00 | 0.00 | 32 | 1009.7 |
| 20260509160649 | 80 | 209 | 7.8 | 14.8 | 0.00 | 0.00 | 0.00 | 35 | 1009.9 |
| 20260509160646 | 80 | 202 | 6.1 | 16.5 | 0.00 | 0.00 | 0.00 | 35 | 1009.8 |
| 20260509160643 | 80 | 196 | 8.7 | 16.5 | 0.00 | 0.00 | 0.00 | 35 | 1009.9 |
| 20260509160639 | 80 | 202 | 9.6 | 15.6 | 0.00 | 0.00 | 0.00 | 33 | 1010.1 |
| 20260509160634 | 80 | 193 | 9.6 | 15.6 | 0.00 | 0.00 | 0.00 | 33 | 1010.2 |
| 20260509160626 | 80 | 210 | 7.8 | 13.9 | 0.00 | 0.00 | 0.00 | 35 | 1010.2 |
| 20260509160623 | 80 | 237 | 9.6 | 18.2 | 0.00 | 0.00 | 0.00 | 33 | 1010.6 |
| 20260509160619 | 80 | 244 | 6.1 | 14.8 | 0.00 | 0.00 | 0.00 | 33 | 1010.6 |
| 20260509160614 | 79 | 219 | 10.4 | 17.4 | 0.00 | 0.00 | 0.00 | 33 | 1010.7 |
| 20260509160608 | 79 | 200 | 7.0 | 18.2 | 0.00 | 0.00 | 0.00 | 36 | 1010.5 |
| 20260509160604 | 79 | 222 | 11.3 | 18.2 | 0.00 | 0.00 | 0.00 | 35 | 1010.7 |
| 20260509160558 | 79 | 184 | 10.4 | 18.2 | 0.00 | 0.00 | 0.00 | 35 | 1010.7 |
| 20260509160553 | 79 | 200 | 10.4 | 16.5 | 0.00 | 0.00 | 0.00 | 34 | 1010.9 |
| 20260509160551 | 79 | 242 | 5.2 | 17.4 | 0.00 | 0.00 | 0.00 | 36 | 1011.0 |
| 20260509160546 | 79 | 208 | 7.0 | 16.5 | 0.00 | 0.00 | 0.00 | 37 | 1011.1 |
| 20260509160539 | 79 | 202 | 8.7 | 16.5 | 0.00 | 0.00 | 0.00 | 36 | 1011.1 |
| 20260509160535 | 79 | 211 | 7.0 | 17.4 | 0.00 | 0.00 | 0.00 | 36 | 1011.2 |
| 20260509160526 | 79 | 209 | 6.1 | 13.0 | 0.00 | 0.00 | 0.00 | 37 | 1011.2 |
| 20260509160523 | 78 | 257 | 3.5 | 15.6 | 0.00 | 0.00 | 0.00 | 39 | 1011.3 |
| 20260509160519 | 78 | 211 | 4.3 | 18.2 | 0.00 | 0.00 | 0.00 | 38 | 1011.2 |
| 20260509160516 | 78 | 157 | 8.7 | 18.2 | 0.00 | 0.00 | 0.00 | 38 | 1011.3 |
| 20260509160513 | 78 | 198 | 11.3 | 16.5 | 0.00 | 0.00 | 0.00 | 38 | 1011.5 |
| 20260509160509 | 78 | 254 | 6.1 | 18.2 | 0.00 | 0.00 | 0.00 | 38 | 1011.5 |
| 20260509160507 | 78 | 186 | 8.7 | 18.2 | 0.00 | 0.00 | 0.00 | 37 | 1011.4 |
| 20260509160503 | 78 | 241 | 2.6 | 9.6 | 0.00 | 0.00 | 0.00 | 43 | 1011.6 |
| 20260509160500 | 78 | 236 | 3.5 | 11.3 | 0.00 | 0.00 | 0.00 | 45 | 1011.7 |
| 20260509160454 | 78 | 216 | 4.3 | 14.8 | 0.00 | 0.00 | 0.00 | 41 | 1011.8 |
| 20260509160446 | 77 | 240 | 7.0 | 17.4 | 0.00 | 0.00 | 0.00 | 1011.8 | |
| 20260509160437 | 77 | 232 | 2.6 | 11.3 | 0.00 | 0.00 | 0.00 | 43 | 1011.9 |
| 20260509160430 | 77 | 219 | 7.0 | 11.3 | 0.00 | 0.00 | 0.00 | 41 | 1011.8 |
| 20260509160427 | 77 | 213 | 7.0 | 14.8 | 0.00 | 0.00 | 0.00 | 38 | 1012.0 |
| 20260509160424 | 77 | 210 | 7.0 | 14.8 | 0.00 | 0.00 | 0.00 | 44 | 1012.0 |
| 20260509160419 | 77 | 225 | 4.3 | 13.9 | 0.00 | 0.00 | 0.00 | 45 | 1012.0 |
| 20260509160416 | 76 | 186 | 5.2 | 12.2 | 0.00 | 0.00 | 0.00 | 44 | 1012.0 |
| 20260509160411 | 76 | 317 | 4.3 | 11.3 | 0.00 | 0.00 | 0.00 | 43 | 1012.0 |
| 20260509160404 | 76 | 264 | 4.3 | 12.2 | 0.00 | 0.00 | 0.00 | 42 | 1012.1 |
| 20260509160356 | 76 | 284 | 4.3 | 12.2 | 0.00 | 0.00 | 0.00 | 44 | 1012.1 |
| 20260509160350 | 76 | 196 | 6.1 | 9.6 | 0.00 | 0.00 | 0.00 | 45 | 1012.0 |
| 20260509160343 | 75 | 195 | 2.6 | 10.4 | 0.00 | 0.00 | 0.00 | 45 | 1012.0 |
| 20260509160337 | 75 | 240 | 2.6 | 13.9 | 0.00 | 0.00 | 0.00 | 46 | 1012.0 |
| 20260509160334 | 74 | 227 | 4.3 | 10.4 | 0.00 | 0.00 | 0.00 | 46 | 1012.0 |
| 20260509160331 | 74 | 242 | 3.5 | 8.7 | 0.00 | 0.00 | 0.00 | 48 | 1012.1 |
| 20260509160326 | 74 | 285 | 3.5 | 8.7 | 0.00 | 0.00 | 0.00 | 48 | 1012.1 |
| 20260509160323 | 73 | 305 | 2.6 | 9.6 | 0.00 | 0.00 | 0.00 | 51 | 1012.1 |
| 20260509160320 | 73 | 306 | 3.5 | 9.6 | 0.00 | 0.00 | 0.00 | 51 | 1012.2 |
| 20260509160316 | 72 | 241 | 3.5 | 10.4 | 0.00 | 0.00 | 0.00 | 49 | 1012.2 |
| 20260509160312 | 71 | 258 | 3.5 | 10.4 | 0.00 | 0.00 | 0.00 | 53 | 1012.1 |
| 20260509160309 | 70 | 230 | 2.6 | 7.8 | 0.00 | 0.00 | 0.00 | 55 | 1012.0 |
| 20260509160303 | 69 | 252 | 3.5 | 9.6 | 0.00 | 0.00 | 0.00 | 56 | 1012.2 |
| 20260509160257 | 69 | 194 | 3.5 | 9.6 | 0.00 | 0.00 | 0.00 | 55 | 1012.2 |
| 20260509160252 | 67 | 212 | 4.3 | 7.8 | 0.00 | 0.00 | 0.00 | 57 | 1012.5 |
| 20260509160247 | 67 | 178 | 4.3 | 7.0 | 0.00 | 0.00 | 0.00 | 58 | 1012.5 |
| 20260509160241 | 66 | 200 | 3.5 | 6.1 | 0.00 | 0.00 | 0.00 | 59 | 1012.6 |
| 20260509160234 | 65 | 182 | 2.6 | 5.2 | 0.00 | 0.00 | 0.00 | 61 | 1012.7 |
| 20260509160230 | 65 | 179 | 3.5 | 6.1 | 0.00 | 0.00 | 0.00 | 61 | 1013.0 |
| 20260509160228 | 64 | 189 | 3.5 | 7.8 | 0.00 | 0.00 | 0.00 | 61 | 1013.0 |
| 20260509160225 | 64 | 209 | 4.3 | 7.8 | 0.00 | 0.00 | 0.00 | 62 | 1012.9 |
| 20260509160216 | 63 | 225 | 4.3 | 7.8 | 0.00 | 0.00 | 0.00 | 62 | 1012.9 |
| 20260509160211 | 62 | 240 | 2.6 | 6.1 | 0.00 | 0.00 | 0.00 | 63 | 1013.0 |
| 20260509160208 | 61 | 240 | 1.7 | 5.2 | 0.00 | 0.00 | 0.00 | 67 | 1013.0 |
| 20260509160203 | 60 | 208 | 3.5 | 5.2 | 0.00 | 0.00 | 0.00 | 66 | 1013.0 |
| 20260509160159 | 60 | 213 | 2.6 | 6.1 | 0.00 | 0.00 | 0.00 | 67 | 1013.0 |
| 20260509160153 | 59 | 252 | 3.5 | 6.1 | 0.00 | 0.00 | 0.00 | 67 | 1013.1 |
| 20260509160150 | 59 | 206 | 4.3 | 7.0 | 0.00 | 0.00 | 0.00 | 68 | 1012.9 |
| 20260509160147 | 58 | 228 | 2.6 | 7.8 | 0.00 | 0.00 | 0.00 | 69 | 1012.8 |
| 20260509160143 | 58 | 223 | 2.6 | 7.8 | 0.00 | 0.00 | 0.00 | 70 | 1012.7 |
| 20260509160138 | 58 | 205 | 4.3 | 6.1 | 0.00 | 0.00 | 0.00 | 70 | 1012.7 |
| 20260509160133 | 57 | 210 | 3.5 | 6.1 | 0.00 | 0.00 | 0.00 | 70 | 1012.5 |
| 20260509160131 | 57 | 203 | 2.6 | 7.8 | 0.00 | 0.00 | 0.00 | 70 | 1012.5 |
| 20260509160125 | 57 | 191 | 3.5 | 7.8 | 0.00 | 0.00 | 0.00 | 70 | 1012.5 |
| 20260509160123 | 57 | 215 | 2.6 | 7.8 | 0.00 | 0.00 | 0.00 | 71 | 1012.5 |
| 20260509160120 | 57 | 220 | 3.5 | 7.8 | 0.00 | 0.00 | 0.00 | 71 | 1012.3 |
| 20260509160114 | 57 | 210 | 2.6 | 5.2 | 0.00 | 0.00 | 0.00 | 71 | 1012.2 |
| 20260509160110 | 56 | 213 | 1.7 | 5.2 | 0.00 | 0.00 | 0.00 | 71 | 1012.1 |
| 20260509160101 | 56 | 194 | 2.6 | 7.8 | 0.00 | 0.00 | 0.00 | 71 | 1011.8 |
| 20260509160058 | 56 | 186 | 1.7 | 5.2 | 0.00 | 0.00 | 0.00 | 71 | 1011.7 |
| 20260509160055 | 56 | 187 | 1.7 | 4.3 | 0.00 | 0.00 | 0.00 | 71 | 1011.6 |
| 20260509160052 | 57 | 218 | 2.6 | 6.1 | 0.00 | 0.00 | 0.00 | 70 | 1011.5 |
| 20260509160045 | 57 | 211 | 1.7 | 5.2 | 0.00 | 0.00 | 0.00 | 69 | 1011.5 |
| 20260509160035 | 57 | 224 | 4.3 | 7.8 | 0.00 | 0.00 | 0.00 | 69 | 1011.4 |
| 20260509160031 | 57 | 224 | 2.6 | 7.0 | 0.00 | 0.00 | 0.00 | 70 | 1011.4 |
| 20260509160028 | 57 | 235 | 2.6 | 5.2 | 0.00 | 0.00 | 0.00 | 69 | 1011.4 |
| 20260509160008 | 57 | 213 | 2.6 | 6.1 | 0.00 | 0.00 | 0.00 | 69 | 1011.4 |
| 20260509160002 | 57 | 207 | 3.5 | 6.1 | 0.00 | 0.00 | 0.00 | 69 | 1011.4 |
| 20260509155957 | 57 | 229 | 2.6 | 8.7 | 0.00 | 0.00 | 0.00 | 69 | 1011.3 |
| 20260509155950 | 57 | 205 | 2.6 | 5.2 | 0.00 | 0.00 | 0.00 | 69 | 1011.3 |
| 20260509155945 | 57 | 234 | 3.5 | 7.0 | 0.00 | 0.00 | 0.00 | 69 | 1011.3 |
| 20260509155943 | 57 | 229 | 3.5 | 6.1 | 0.00 | 0.00 | 0.00 | 69 | 1011.2 |
| 20260509155934 | 58 | 205 | 2.6 | 6.1 | 0.00 | 0.00 | 0.00 | 69 | 1011.2 |
| 20260509155932 | 58 | 200 | 2.6 | 5.2 | 0.00 | 0.00 | 0.00 | 69 | 1011.2 |
| 20260509155926 | 58 | 224 | 2.6 | 6.1 | 0.00 | 0.00 | 0.00 | 69 | 1011.3 |
| 20260509155923 | 58 | 215 | 2.6 | 6.1 | 0.00 | 0.00 | 0.00 | 68 | 1011.3 |
| 20260509155920 | 58 | 198 | 1.7 | 3.5 | 0.00 | 0.00 | 0.00 | 67 | 1011.1 |
| 20260509155914 | 58 | 211 | 1.7 | 4.3 | 0.00 | 0.00 | 0.00 | 67 | 1011.2 |
| 20260509155911 | 59 | 197 | 2.6 | 5.2 | 0.00 | 0.00 | 0.00 | 67 | 1011.0 |
| 20260509155903 | 59 | 187 | 2.6 | 6.1 | 0.00 | 0.00 | 0.00 | 67 | 1011.0 |
| 20260509155901 | 59 | 187 | 1.7 | 6.1 | 0.00 | 0.00 | 0.00 | 67 | 1011.0 |
| 20260509155856 | 59 | 220 | 2.6 | 5.2 | 0.00 | 0.00 | 0.00 | 67 | 1011.0 |
| 20260509155853 | 59 | 211 | 2.6 | 3.5 | 0.00 | 0.00 | 0.00 | 67 | 1011.0 |
| 20260509155848 | 59 | 217 | 1.7 | 4.3 | 0.00 | 0.00 | 0.00 | 67 | 1011.0 |
| 20260509155843 | 59 | 207 | 2.6 | 4.3 | 0.00 | 0.00 | 0.00 | 67 | 1011.0 |
| 20260509155840 | 59 | 213 | 0.9 | 3.5 | 0.00 | 0.00 | 0.00 | 66 | 1010.9 |
| 20260509155837 | 59 | 200 | 0.9 | 3.5 | 0.00 | 0.00 | 0.00 | 66 | 1011.0 |
| 20260509155833 | 59 | 232 | 0.9 | 3.5 | 0.00 | 0.00 | 0.00 | 66 | 1011.0 |
| 20260509155830 | 59 | 221 | 1.7 | 3.5 | 0.00 | 0.00 | 0.00 | 66 | 1011.0 |
| 20260509155827 | 59 | 202 | 1.7 | 4.3 | 0.00 | 0.00 | 0.00 | 66 | 1011.0 |
| 20260509155824 | 59 | 205 | 1.7 | 7.0 | 0.00 | 0.00 | 0.00 | 66 | 1011.0 |
| 20260509155819 | 59 | 213 | 2.6 | 7.0 | 0.00 | 0.00 | 0.00 | 66 | 1011.0 |
| 20260509155816 | 59 | 205 | 2.6 | 5.2 | 0.00 | 0.00 | 0.00 | 66 | 1011.0 |
| 20260509155812 | 59 | 212 | 3.5 | 5.2 | 0.00 | 0.00 | 0.00 | 65 | 1011.0 |
| 20260509155808 | 60 | 196 | 1.7 | 2.6 | 0.00 | 0.00 | 0.00 | 65 | 1011.1 |
| 20260509155806 | 60 | 144 | 0.9 | 1.7 | 0.00 | 0.00 | 0.00 | 63 | 1011.1 |
| 20260509155758 | 61 | 147 | 0.9 | 1.7 | 0.00 | 0.00 | 0.00 | 63 | 1011.1 |
| 20260509155753 | 61 | 164 | 0.0 | 4.3 | 0.00 | 0.00 | 0.00 | 63 | 1011.1 |
| 20260509155748 | 62 | 190 | 0.9 | 3.5 | 0.00 | 0.00 | 0.00 | 61 | 1011.2 |
| 20260509155744 | 62 | 202 | 1.7 | 5.2 | 0.00 | 0.00 | 0.00 | 61 | 1011.1 |
| 20260509155735 | 62 | 218 | 3.5 | 7.0 | 0.00 | 0.00 | 0.00 | 60 | 1011.2 |
| 20260509155733 | 62 | 188 | 3.5 | 7.0 | 0.00 | 0.00 | 0.00 | 60 | 1011.2 |
| 20260509155729 | 62 | 209 | 2.6 | 6.1 | 0.00 | 0.00 | 0.00 | 60 | 1011.2 |
| 20260509155723 | 62 | 197 | 3.5 | 7.0 | 0.00 | 0.00 | 0.00 | 60 | 1011.2 |
| 20260509155718 | 62 | 218 | 3.5 | 7.0 | 0.00 | 0.00 | 0.00 | 60 | 1011.2 |
| 20260509155715 | 62 | 188 | 2.6 | 7.0 | 0.00 | 0.00 | 0.00 | 59 | 1011.2 |
| 20260509155709 | 62 | 224 | 4.3 | 7.0 | 0.00 | 0.00 | 0.00 | 59 | 1011.3 |
| 20260509155706 | 63 | 211 | 2.6 | 7.8 | 0.00 | 0.00 | 0.00 | 58 | 1011.2 |
| 20260509155702 | 63 | 214 | 2.6 | 7.8 | 0.00 | 0.00 | 0.00 | 58 | 1011.2 |
| 20260509155656 | 63 | 215 | 3.5 | 5.2 | 0.00 | 0.00 | 0.00 | 58 | 1011.3 |
| 20260509155652 | 63 | 212 | 2.6 | 7.8 | 0.00 | 0.00 | 0.00 | 57 | 1011.2 |
| 20260509155648 | 63 | 200 | 2.6 | 7.8 | 0.00 | 0.00 | 0.00 | 57 | 1011.1 |
| 20260509155641 | 63 | 185 | 3.5 | 7.0 | 0.00 | 0.00 | 0.00 | 57 | 1011.1 |
| 20260509155635 | 63 | 213 | 3.5 | 7.0 | 0.00 | 0.00 | 0.00 | 58 | 1011.1 |
| 20260509155630 | 62 | 216 | 4.3 | 7.0 | 0.00 | 0.00 | 0.00 | 57 | 1011.0 |
| 20260509155626 | 62 | 207 | 2.6 | 7.8 | 0.00 | 0.00 | 0.00 | 57 | 1011.1 |
| 20260509155620 | 62 | 198 | 3.5 | 7.8 | 0.00 | 0.00 | 0.00 | 57 | 1011.1 |
| 20260509155618 | 62 | 230 | 4.3 | 7.0 | 0.00 | 0.00 | 0.00 | 57 | 1011.0 |
| 20260509155614 | 62 | 210 | 3.5 | 7.0 | 0.00 | 0.00 | 0.00 | 57 | 1011.0 |
| 20260509155611 | 61 | 196 | 2.6 | 7.0 | 0.00 | 0.00 | 0.00 | 57 | 1010.9 |
| 20260509155607 | 61 | 195 | 3.5 | 5.2 | 0.00 | 0.00 | 0.00 | 57 | 1010.8 |
| 20260509155604 | 61 | 215 | 2.6 | 5.2 | 0.00 | 0.00 | 0.00 | 56 | 1010.9 |
| 20260509155559 | 62 | 219 | 3.5 | 6.1 | 0.00 | 0.00 | 0.00 | 56 | 1011.0 |
| 20260509155554 | 62 | 192 | 3.5 | 6.1 | 0.00 | 0.00 | 0.00 | 56 | 1011.0 |
| 20260509155551 | 62 | 187 | 2.6 | 8.7 | 0.00 | 0.00 | 0.00 | 56 | 1010.8 |
| 20260509155547 | 62 | 190 | 4.3 | 8.7 | 0.00 | 0.00 | 0.00 | 56 | 1010.8 |
| 20260509155543 | 61 | 215 | 2.6 | 7.8 | 0.00 | 0.00 | 0.00 | 56 | 1010.8 |
| 20260509155540 | 61 | 207 | 3.5 | 7.8 | 0.00 | 0.00 | 0.00 | 56 | 1010.9 |
| 20260509155533 | 61 | 171 | 1.7 | 4.3 | 0.00 | 0.00 | 0.00 | 56 | 1011.0 |
| 20260509155526 | 61 | 217 | 0.9 | 5.2 | 0.00 | 0.00 | 0.00 | 57 | 1011.0 |